BAW21B EGLL-KLAX

Flight info

Callsign BAW21B
Flight time 9h 52m
Altitude 34000
Route CPT L9 BUCGO DCT FELCA DCT NICXI DCT BAKUR DCT REVNU DCT PIKIL/M083F340 DCT 57N020W 59N030W 60N040W 60N050W/M083F360 DCT SAVRY N924A SINGA/N0474F360 DCT YVP DCT KEMSA/N0471F380 DCT 54N090W DCT KOBID DCT SEGAP Q855 JARLY DCT MLS DCT KU90S DCT BPI/N0481F400 J713 TCH DCT PICHO Q842 WINEN/N0473F390 Q73 EEVUN/N0476F400 Q73 HAKMN ANJLL4
Aircraft B77W/H-SDE1E3FGHIJ3J4J5J6M1M2P2RWXYZ/LB1D1

Departure

Time 2026-04-25 00:29
Airport London Heathrow Airport (EGLL)

Arrival

Time 2026-04-25 10:22
Airport Los Angeles International Airport (KLAX)
Time Latitude Longitude Altitude Speed Heading
2026-04-25 00:29 51.45880 -0.38847 2478 ft 203 kts 127°
2026-04-25 00:29 51.44786 -0.37368 2955 ft 211 kts 153°
2026-04-25 00:29 51.43370 -0.36793 3501 ft 216 kts 179°
2026-04-25 00:30 51.41907 -0.37299 4067 ft 221 kts 207°
2026-04-25 00:30 51.40721 -0.38849 4692 ft 223 kts 233°
2026-04-25 00:30 51.40051 -0.41131 5025 ft 239 kts 260°
2026-04-25 00:30 51.39989 -0.43881 5361 ft 256 kts 276°
2026-04-25 00:31 51.40253 -0.46785 5820 ft 268 kts 281°
2026-04-25 00:31 51.40603 -0.49675 6505 ft 271 kts 282°
2026-04-25 00:31 51.40973 -0.52647 7191 ft 274 kts 282°
2026-04-25 00:31 51.41345 -0.55652 7871 ft 277 kts 282°
2026-04-25 00:32 51.41721 -0.58712 8495 ft 281 kts 282°
2026-04-25 00:32 51.42096 -0.61774 9146 ft 284 kts 282°
2026-04-25 00:32 51.42475 -0.64874 9784 ft 287 kts 282°
2026-04-25 00:32 51.42857 -0.68012 10403 ft 291 kts 281°
2026-04-25 00:33 51.43251 -0.71250 10815 ft 304 kts 281°
2026-04-25 00:33 51.43668 -0.74678 11146 ft 320 kts 281°
2026-04-25 00:33 51.44101 -0.78230 11521 ft 334 kts 281°
2026-04-25 00:33 51.44559 -0.81980 11895 ft 349 kts 281°
2026-04-25 00:34 51.45030 -0.85842 12256 ft 363 kts 281°
2026-04-25 00:34 51.45520 -0.89907 12696 ft 375 kts 280°
2026-04-25 00:34 51.45993 -0.94028 13357 ft 380 kts 280°
2026-04-25 00:34 51.46462 -0.98143 14144 ft 382 kts 280°
2026-04-25 00:35 51.46941 -1.02355 14912 ft 385 kts 280°
2026-04-25 00:35 51.47424 -1.06601 15648 ft 389 kts 280°
2026-04-25 00:35 51.47999 -1.11684 16510 ft 393 kts 280°
2026-04-25 00:35 51.48548 -1.15955 17235 ft 395 kts 285°
2026-04-25 00:36 51.49495 -1.20065 17943 ft 398 kts 295°
2026-04-25 00:36 51.50868 -1.23889 18600 ft 402 kts 304°
2026-04-25 00:36 51.52675 -1.27361 19266 ft 406 kts 314°
2026-04-25 00:36 51.54713 -1.30479 19907 ft 410 kts 316°
2026-04-25 00:37 51.56806 -1.33615 20549 ft 413 kts 315°
2026-04-25 00:37 51.58397 -1.36006 21037 ft 415 kts 315°
2026-04-25 00:37 51.60364 -1.39370 21629 ft 416 kts 307°
2026-04-25 00:37 51.61990 -1.43246 22190 ft 418 kts 298°
2026-04-25 00:38 51.63378 -1.47328 22724 ft 421 kts 297°
2026-04-25 00:38 51.64759 -1.51478 23277 ft 424 kts 297°
2026-04-25 00:38 51.66153 -1.55671 23875 ft 426 kts 297°
2026-04-25 00:38 51.67535 -1.59840 24404 ft 429 kts 297°
2026-04-25 00:39 51.68925 -1.64067 24881 ft 432 kts 295°
2026-04-25 00:39 51.70065 -1.68622 25340 ft 435 kts 286°
2026-04-25 00:39 51.70747 -1.73368 25823 ft 438 kts 278°
2026-04-25 00:39 51.71131 -1.78196 26319 ft 442 kts 276°
2026-04-25 00:40 51.71488 -1.83121 26808 ft 445 kts 276°
2026-04-25 00:40 51.71850 -1.88173 27262 ft 449 kts 276°
2026-04-25 00:40 51.72207 -1.93188 27748 ft 453 kts 276°
2026-04-25 00:40 51.72567 -1.98263 28203 ft 457 kts 276°
2026-04-25 00:41 51.72927 -2.03376 28634 ft 461 kts 276°
2026-04-25 00:41 51.73283 -2.08464 29091 ft 465 kts 276°
2026-04-25 00:41 51.73677 -2.14125 29654 ft 467 kts 276°
2026-04-25 00:41 51.74036 -2.19314 30299 ft 466 kts 276°
2026-04-25 00:42 51.74388 -2.24447 31001 ft 463 kts 276°
2026-04-25 00:42 51.74736 -2.29549 31690 ft 460 kts 276°
2026-04-25 00:42 51.75082 -2.34644 32299 ft 459 kts 276°
2026-04-25 00:42 51.75427 -2.39766 32854 ft 458 kts 276°
2026-04-25 00:43 51.75768 -2.44858 33386 ft 457 kts 276°
2026-04-25 00:43 51.76104 -2.49907 33861 ft 456 kts 276°
2026-04-25 00:43 51.76438 -2.54979 34224 ft 458 kts 275°
2026-04-25 00:43 51.76775 -2.60118 34231 ft 460 kts 276°
2026-04-25 00:44 51.77438 -2.70317 34230 ft 456 kts 275°
2026-04-25 00:44 51.78085 -2.80428 34226 ft 457 kts 275°
2026-04-25 00:45 51.78731 -2.90652 34230 ft 457 kts 275°
2026-04-25 00:45 51.79367 -3.00865 34228 ft 459 kts 275°
2026-04-25 00:46 51.79994 -3.11074 34225 ft 459 kts 275°
2026-04-25 00:47 51.80917 -3.26392 34222 ft 460 kts 274°
2026-04-25 00:47 51.81523 -3.36628 34222 ft 461 kts 274°
2026-04-25 00:48 51.82123 -3.46913 34221 ft 460 kts 274°
2026-04-25 00:48 51.82927 -3.57142 34228 ft 463 kts 280°
2026-04-25 00:49 51.84257 -3.67348 34226 ft 464 kts 280°
2026-04-25 00:49 51.85578 -3.77516 34226 ft 466 kts 280°
2026-04-25 00:50 51.86888 -3.87712 34226 ft 467 kts 280°
2026-04-25 00:50 51.88200 -3.98009 34229 ft 469 kts 280°
2026-04-25 00:51 51.89502 -4.08317 34228 ft 476 kts 280°
2026-04-25 00:51 51.90831 -4.18923 34222 ft 481 kts 279°
2026-04-25 00:52 51.92143 -4.29481 34222 ft 483 kts 279°
2026-04-25 00:52 51.93454 -4.40115 34223 ft 484 kts 279°
2026-04-25 00:53 51.94761 -4.50798 34224 ft 485 kts 279°
2026-04-25 00:53 51.96055 -4.61455 34220 ft 487 kts 279°
2026-04-25 00:54 51.97347 -4.72196 34221 ft 487 kts 278°
2026-04-25 00:54 51.98635 -4.82984 34219 ft 489 kts 278°
2026-04-25 00:55 51.99914 -4.93787 34219 ft 490 kts 278°
2026-04-25 00:55 52.01429 -5.04527 34219 ft 495 kts 287°
2026-04-25 00:56 52.04523 -5.14516 34222 ft 500 kts 299°
2026-04-25 00:56 52.08102 -5.24125 34219 ft 500 kts 299°
2026-04-25 00:57 52.11659 -5.33749 34212 ft 501 kts 299°
2026-04-25 00:57 52.15212 -5.43430 34204 ft 500 kts 298°
2026-04-25 00:58 52.18777 -5.53202 34213 ft 500 kts 298°
2026-04-25 00:58 52.22290 -5.62876 34209 ft 502 kts 298°
2026-04-25 00:59 52.26349 -5.72097 34214 ft 504 kts 309°
2026-04-25 00:59 52.31013 -5.80633 34214 ft 506 kts 309°
2026-04-25 01:00 52.35692 -5.89212 34207 ft 506 kts 309°
2026-04-25 01:00 52.40332 -5.97757 34205 ft 507 kts 309°
2026-04-25 01:01 52.44988 -6.06370 34211 ft 508 kts 309°
2026-04-25 01:01 52.49654 -6.15034 34205 ft 507 kts 309°
2026-04-25 01:02 52.54337 -6.23761 34209 ft 509 kts 309°
2026-04-25 01:02 52.58990 -6.32464 34212 ft 508 kts 309°
2026-04-25 01:03 52.63637 -6.41188 34209 ft 509 kts 309°
2026-04-25 01:03 52.68305 -6.49982 34207 ft 510 kts 309°
2026-04-25 01:04 52.72954 -6.58771 34208 ft 510 kts 309°
2026-04-25 01:04 52.77617 -6.67619 34211 ft 511 kts 309°
2026-04-25 01:05 52.82230 -6.76400 34213 ft 510 kts 309°
2026-04-25 01:05 52.86881 -6.85286 34213 ft 509 kts 308°
2026-04-25 01:06 52.91505 -6.94154 34217 ft 511 kts 309°
2026-04-25 01:06 52.96143 -7.03081 34217 ft 512 kts 309°
2026-04-25 01:07 53.00751 -7.11980 34216 ft 510 kts 309°
2026-04-25 01:07 53.05383 -7.20959 34212 ft 514 kts 309°
2026-04-25 01:08 53.10020 -7.29978 34206 ft 514 kts 309°
2026-04-25 01:08 53.14692 -7.39102 34189 ft 514 kts 309°
2026-04-25 01:09 53.19317 -7.48163 34191 ft 515 kts 309°
2026-04-25 01:09 53.23928 -7.57232 34194 ft 516 kts 309°
2026-04-25 01:10 53.28571 -7.66397 34200 ft 516 kts 309°
2026-04-25 01:10 53.33207 -7.75582 34185 ft 518 kts 308°
2026-04-25 01:11 53.37822 -7.84761 34197 ft 518 kts 309°
2026-04-25 01:11 53.42454 -7.94006 34188 ft 517 kts 309°
2026-04-25 01:12 53.47041 -8.03196 34186 ft 519 kts 309°
2026-04-25 01:12 53.51673 -8.12510 34194 ft 519 kts 309°
2026-04-25 01:13 53.56265 -8.21778 34190 ft 521 kts 309°
2026-04-25 01:13 53.60895 -8.31158 34196 ft 519 kts 309°
2026-04-25 01:14 53.65488 -8.40499 34195 ft 522 kts 309°
2026-04-25 01:14 53.70074 -8.49859 34196 ft 520 kts 308°
2026-04-25 01:15 53.74680 -8.59298 34201 ft 520 kts 309°
2026-04-25 01:15 53.79250 -8.68697 34195 ft 522 kts 307°
2026-04-25 01:16 53.83853 -8.78200 34193 ft 521 kts 308°
2026-04-25 01:16 53.88414 -8.87655 34199 ft 523 kts 308°
2026-04-25 01:17 53.93005 -8.97205 34206 ft 523 kts 307°
2026-04-25 01:17 53.97584 -9.06768 34195 ft 523 kts 307°
2026-04-25 01:18 54.02133 -9.16306 34191 ft 523 kts 307°
2026-04-25 01:18 54.06700 -9.25920 34189 ft 524 kts 307°
2026-04-25 01:19 54.11255 -9.35544 34182 ft 524 kts 307°
2026-04-25 01:19 54.15823 -9.45232 34164 ft 525 kts 307°
2026-04-25 01:20 54.20374 -9.54923 34167 ft 524 kts 307°
2026-04-25 01:20 54.24898 -9.64595 34168 ft 526 kts 308°
2026-04-25 01:21 54.29465 -9.74399 34164 ft 527 kts 307°
2026-04-25 01:21 54.33984 -9.84134 34164 ft 527 kts 307°
2026-04-25 01:22 54.38523 -9.93953 34164 ft 524 kts 307°
2026-04-25 01:22 54.43041 -10.03764 34168 ft 527 kts 307°
2026-04-25 01:23 54.47315 -10.13842 34169 ft 526 kts 300°
2026-04-25 01:23 54.51085 -10.24581 34164 ft 525 kts 299°
2026-04-25 01:24 54.54815 -10.35353 34168 ft 528 kts 299°
2026-04-25 01:24 54.58534 -10.46165 34167 ft 525 kts 299°
2026-04-25 01:25 54.62236 -10.56997 34168 ft 527 kts 299°
2026-04-25 01:25 54.65935 -10.67873 34166 ft 528 kts 298°
2026-04-25 01:26 54.69606 -10.78718 34160 ft 526 kts 299°
2026-04-25 01:26 54.73293 -10.89664 34162 ft 529 kts 298°
2026-04-25 01:27 54.76955 -11.00587 34161 ft 527 kts 298°
2026-04-25 01:27 54.80613 -11.11548 34163 ft 529 kts 298°
2026-04-25 01:28 54.86111 -11.28118 34171 ft 529 kts 298°
2026-04-25 01:28 54.89777 -11.39227 34165 ft 531 kts 299°
2026-04-25 01:29 54.93407 -11.50281 34160 ft 530 kts 299°
2026-04-25 01:29 54.97047 -11.61413 34158 ft 533 kts 298°
2026-04-25 01:30 55.00689 -11.72605 34159 ft 532 kts 298°
2026-04-25 01:30 55.04297 -11.83745 34161 ft 533 kts 298°
2026-04-25 01:31 55.07913 -11.94960 34160 ft 532 kts 297°
2026-04-25 01:31 55.11537 -12.06255 34154 ft 534 kts 298°
2026-04-25 01:32 55.15138 -12.17525 34159 ft 533 kts 297°
2026-04-25 01:32 55.18706 -12.28751 34161 ft 534 kts 297°
2026-04-25 01:33 55.22283 -12.40054 34158 ft 534 kts 298°
2026-04-25 01:33 55.25879 -12.51473 34156 ft 535 kts 297°
2026-04-25 01:34 55.29434 -12.62814 34165 ft 535 kts 298°
2026-04-25 01:34 55.32991 -12.74216 34155 ft 535 kts 297°
2026-04-25 01:35 55.36548 -12.85675 34155 ft 536 kts 297°
2026-04-25 01:35 55.40102 -12.97176 34156 ft 534 kts 297°
2026-04-25 01:36 55.43617 -13.08610 34153 ft 535 kts 297°
2026-04-25 01:36 55.47142 -13.20129 34153 ft 536 kts 297°
2026-04-25 01:37 55.50643 -13.31626 34156 ft 534 kts 297°
2026-04-25 01:37 55.54125 -13.43117 34156 ft 535 kts 297°
2026-04-25 01:38 55.57606 -13.54660 34158 ft 534 kts 298°
2026-04-25 01:38 55.61076 -13.66223 34149 ft 535 kts 297°
2026-04-25 01:39 55.64536 -13.77811 34145 ft 535 kts 297°
2026-04-25 01:39 55.67979 -13.89397 34152 ft 535 kts 297°
2026-04-25 01:40 55.71405 -14.00985 34148 ft 533 kts 297°
2026-04-25 01:40 55.74847 -14.12682 34152 ft 534 kts 297°
2026-04-25 01:41 55.78245 -14.24290 34153 ft 535 kts 297°
2026-04-25 01:41 55.81652 -14.35986 34149 ft 536 kts 297°
2026-04-25 01:42 55.85045 -14.47689 34163 ft 536 kts 297°
2026-04-25 01:42 55.88430 -14.59428 34154 ft 535 kts 297°
2026-04-25 01:43 55.91804 -14.71189 34153 ft 536 kts 296°
2026-04-25 01:43 55.95174 -14.82990 34157 ft 537 kts 296°
2026-04-25 01:44 55.98548 -14.94872 34165 ft 537 kts 297°
2026-04-25 01:44 56.01534 -15.06998 34159 ft 538 kts 291°
2026-04-25 01:45 56.04325 -15.19344 34162 ft 539 kts 291°
2026-04-25 01:45 56.07104 -15.31758 34152 ft 540 kts 291°
2026-04-25 01:46 56.09876 -15.44228 34159 ft 540 kts 291°
2026-04-25 01:46 56.12547 -15.56330 34155 ft 541 kts 291°
2026-04-25 01:47 56.15280 -15.68791 34144 ft 543 kts 290°
2026-04-25 01:47 56.18016 -15.81344 34140 ft 540 kts 290°
2026-04-25 01:48 56.20741 -15.93929 34143 ft 545 kts 290°
2026-04-25 01:48 56.23449 -16.06510 34148 ft 542 kts 290°
2026-04-25 01:49 56.26150 -16.19136 34143 ft 546 kts 290°
2026-04-25 01:49 56.28841 -16.31795 34147 ft 542 kts 290°
2026-04-25 01:50 56.31518 -16.44466 34144 ft 545 kts 290°
2026-04-25 01:50 56.34187 -16.57178 34136 ft 542 kts 290°
2026-04-25 01:51 56.36840 -16.69896 34137 ft 544 kts 289°
2026-04-25 01:51 56.39457 -16.82518 34135 ft 541 kts 289°
2026-04-25 01:52 56.42082 -16.95263 34131 ft 546 kts 289°
2026-04-25 01:52 56.44701 -17.08059 34138 ft 541 kts 289°
2026-04-25 01:53 56.47287 -17.20772 34134 ft 543 kts 289°
2026-04-25 01:53 56.49857 -17.33489 34133 ft 542 kts 290°
2026-04-25 01:54 56.52419 -17.46246 34128 ft 541 kts 289°
2026-04-25 01:54 56.54982 -17.59098 34126 ft 544 kts 290°
2026-04-25 01:55 56.57513 -17.71864 34117 ft 543 kts 289°
2026-04-25 01:55 56.60037 -17.84683 34122 ft 543 kts 289°
2026-04-25 01:56 56.62552 -17.97538 34117 ft 541 kts 289°
2026-04-25 01:56 56.65070 -18.10499 34115 ft 544 kts 289°
2026-04-25 01:57 56.68789 -18.29795 34115 ft 545 kts 289°
2026-04-25 01:58 56.71272 -18.42791 34119 ft 543 kts 289°
2026-04-25 01:58 56.73718 -18.55677 34123 ft 544 kts 289°
2026-04-25 01:59 56.76168 -18.68671 34114 ft 545 kts 288°
2026-04-25 01:59 56.78611 -18.81716 34113 ft 545 kts 288°
2026-04-25 02:00 56.81033 -18.94738 34114 ft 546 kts 288°
2026-04-25 02:00 56.83441 -19.07777 34109 ft 546 kts 288°
2026-04-25 02:01 56.85846 -19.20895 34111 ft 546 kts 288°
2026-04-25 02:01 56.88227 -19.33965 34112 ft 545 kts 288°
2026-04-25 02:02 56.90613 -19.47159 34111 ft 547 kts 288°
2026-04-25 02:02 56.92968 -19.60277 34109 ft 545 kts 288°
2026-04-25 02:03 56.95315 -19.73438 34105 ft 546 kts 287°
2026-04-25 02:03 56.97639 -19.86571 34102 ft 546 kts 287°
2026-04-25 02:04 56.99965 -19.99803 34098 ft 547 kts 287°
2026-04-25 02:04 57.02850 -20.12532 34105 ft 545 kts 297°
2026-04-25 02:05 57.06115 -20.25055 34093 ft 545 kts 296°
2026-04-25 02:05 57.09304 -20.37555 34105 ft 546 kts 296°
2026-04-25 02:06 57.12488 -20.50246 34090 ft 546 kts 296°
2026-04-25 02:06 57.15613 -20.62845 34098 ft 545 kts 295°
2026-04-25 02:07 57.18741 -20.75576 34091 ft 545 kts 294°
2026-04-25 02:07 57.21838 -20.88276 34099 ft 545 kts 294°
2026-04-25 02:08 57.24915 -21.00980 34086 ft 545 kts 295°
2026-04-25 02:08 57.27972 -21.13686 34086 ft 545 kts 294°
2026-04-25 02:09 57.31021 -21.26435 34090 ft 546 kts 295°
2026-04-25 02:09 57.34065 -21.39241 34098 ft 544 kts 294°
2026-04-25 02:10 57.37097 -21.52079 34103 ft 546 kts 295°
2026-04-25 02:10 57.40105 -21.64887 34109 ft 543 kts 295°
2026-04-25 02:11 57.43090 -21.77678 34097 ft 545 kts 294°
2026-04-25 02:11 57.46070 -21.90523 34097 ft 543 kts 294°
2026-04-25 02:12 57.49050 -22.03440 34096 ft 546 kts 294°
2026-04-25 02:12 57.52001 -22.16318 34105 ft 542 kts 294°
2026-04-25 02:13 57.54930 -22.29174 34093 ft 546 kts 294°
2026-04-25 02:13 57.57870 -22.42155 34103 ft 542 kts 294°
2026-04-25 02:14 57.60766 -22.55022 34100 ft 543 kts 294°
2026-04-25 02:14 57.63657 -22.67946 34093 ft 545 kts 293°
2026-04-25 02:15 57.66542 -22.80923 34097 ft 542 kts 293°
2026-04-25 02:15 57.69415 -22.93928 34099 ft 544 kts 293°
2026-04-25 02:16 57.72263 -23.06899 34107 ft 542 kts 293°
2026-04-25 02:16 57.75107 -23.19932 34100 ft 543 kts 293°
2026-04-25 02:17 57.77946 -23.33024 34109 ft 543 kts 293°
2026-04-25 02:17 57.80751 -23.46046 34112 ft 542 kts 293°
2026-04-25 02:18 57.83543 -23.59086 34110 ft 543 kts 293°
2026-04-25 02:18 57.86340 -23.72230 34095 ft 542 kts 292°
2026-04-25 02:19 57.89111 -23.85342 34092 ft 544 kts 292°
2026-04-25 02:19 57.91869 -23.98475 34096 ft 543 kts 292°
2026-04-25 02:20 57.94607 -24.11593 34092 ft 543 kts 292°
2026-04-25 02:20 57.97335 -24.24751 34096 ft 543 kts 292°
2026-04-25 02:21 58.00059 -24.37976 34085 ft 543 kts 292°
2026-04-25 02:21 58.02766 -24.51208 34104 ft 542 kts 292°
2026-04-25 02:22 58.05467 -24.64492 34105 ft 544 kts 291°
2026-04-25 02:22 58.08138 -24.77717 34097 ft 543 kts 290°
2026-04-25 02:23 58.10809 -24.91033 34095 ft 545 kts 290°
2026-04-25 02:23 58.13476 -25.04420 34097 ft 542 kts 291°
2026-04-25 02:24 58.16110 -25.17730 34115 ft 543 kts 291°
2026-04-25 02:24 58.18719 -25.31000 34107 ft 543 kts 291°
2026-04-25 02:25 58.21331 -25.44377 34120 ft 541 kts 290°
2026-04-25 02:25 58.23930 -25.57783 34118 ft 542 kts 290°
2026-04-25 02:26 58.26496 -25.71108 34108 ft 540 kts 290°
2026-04-25 02:26 58.29050 -25.84457 34119 ft 541 kts 290°
2026-04-25 02:27 58.31587 -25.97812 34122 ft 540 kts 289°
2026-04-25 02:27 58.34113 -26.11205 34099 ft 541 kts 290°
2026-04-25 02:28 58.36622 -26.24598 34115 ft 541 kts 290°
2026-04-25 02:28 58.39127 -26.38067 34102 ft 541 kts 290°
2026-04-25 02:29 58.41602 -26.51463 34114 ft 539 kts 289°
2026-04-25 02:29 58.44069 -26.64913 34111 ft 539 kts 290°
2026-04-25 02:30 58.46529 -26.78425 34101 ft 540 kts 289°
2026-04-25 02:30 58.48974 -26.91947 34102 ft 540 kts 289°
2026-04-25 02:31 58.51390 -27.05405 34110 ft 540 kts 289°
2026-04-25 02:31 58.53808 -27.18975 34101 ft 541 kts 289°
2026-04-25 02:32 58.56200 -27.32495 34121 ft 538 kts 289°
2026-04-25 02:32 58.58588 -27.46093 34112 ft 540 kts 289°
2026-04-25 02:33 58.60948 -27.59630 34109 ft 539 kts 289°
2026-04-25 02:33 58.63296 -27.73203 34120 ft 540 kts 288°
2026-04-25 02:34 58.65633 -27.86808 34102 ft 540 kts 288°
2026-04-25 02:34 58.67966 -28.00497 34124 ft 539 kts 288°
2026-04-25 02:35 58.70268 -28.14102 34111 ft 539 kts 288°
2026-04-25 02:35 58.72552 -28.27704 34132 ft 538 kts 288°
2026-04-25 02:36 58.74837 -28.41417 34121 ft 538 kts 288°
2026-04-25 02:36 58.77091 -28.55050 34123 ft 538 kts 288°
2026-04-25 02:37 58.79328 -28.68685 34136 ft 536 kts 287°
2026-04-25 02:37 58.81558 -28.82374 34121 ft 537 kts 287°
2026-04-25 02:38 58.83767 -28.96052 34122 ft 538 kts 287°
2026-04-25 02:38 58.85965 -29.09761 34127 ft 536 kts 287°
2026-04-25 02:39 58.88138 -29.23428 34135 ft 535 kts 287°
2026-04-25 02:39 58.90293 -29.37087 34133 ft 535 kts 287°
2026-04-25 02:40 58.92449 -29.50862 34140 ft 534 kts 287°
2026-04-25 02:40 58.94572 -29.64536 34140 ft 534 kts 287°
2026-04-25 02:41 58.96678 -29.78209 34132 ft 534 kts 286°
2026-04-25 02:41 58.98782 -29.91977 34138 ft 534 kts 286°
2026-04-25 02:42 59.00803 -30.05769 34151 ft 533 kts 285°
2026-04-25 02:42 59.02763 -30.19618 34138 ft 534 kts 285°
2026-04-25 02:43 59.04702 -30.33464 34151 ft 533 kts 285°
2026-04-25 02:43 59.06621 -30.47292 34147 ft 533 kts 285°
2026-04-25 02:44 59.08520 -30.61111 34145 ft 534 kts 285°
2026-04-25 02:44 59.10407 -30.74970 34159 ft 533 kts 284°
2026-04-25 02:45 59.12293 -30.88942 34138 ft 534 kts 284°
2026-04-25 02:45 59.14154 -31.02861 34138 ft 534 kts 284°
2026-04-25 02:46 59.15991 -31.16724 34151 ft 533 kts 284°
2026-04-25 02:46 59.17820 -31.30654 34153 ft 534 kts 284°
2026-04-25 02:47 59.19647 -31.44695 34149 ft 533 kts 284°
2026-04-25 02:47 59.21439 -31.58607 34161 ft 534 kts 284°
2026-04-25 02:48 59.23224 -31.72581 34149 ft 533 kts 283°
2026-04-25 02:48 59.25003 -31.86652 34151 ft 534 kts 283°
2026-04-25 02:49 59.26759 -32.00674 34159 ft 532 kts 283°
2026-04-25 02:49 59.28489 -32.14624 34152 ft 534 kts 283°
2026-04-25 02:50 59.30220 -32.28711 34153 ft 533 kts 283°
2026-04-25 02:50 59.31915 -32.42648 34166 ft 531 kts 283°
2026-04-25 02:51 59.33608 -32.56704 34163 ft 533 kts 283°
2026-04-25 02:51 59.35283 -32.70742 34159 ft 531 kts 282°
2026-04-25 02:52 59.36944 -32.84815 34159 ft 532 kts 282°
2026-04-25 02:52 59.38592 -32.98913 34168 ft 531 kts 282°
2026-04-25 02:53 59.40222 -33.13004 34156 ft 532 kts 282°
2026-04-25 02:53 59.41829 -33.27044 34168 ft 530 kts 282°
2026-04-25 02:54 59.43423 -33.41105 34164 ft 530 kts 282°
2026-04-25 02:54 59.44994 -33.55122 34168 ft 530 kts 282°
2026-04-25 02:55 59.46565 -33.69270 34170 ft 530 kts 281°
2026-04-25 02:55 59.48112 -33.83365 34166 ft 530 kts 281°
2026-04-25 02:56 59.49643 -33.97461 34162 ft 531 kts 281°
2026-04-25 02:56 59.51166 -34.11645 34167 ft 530 kts 281°
2026-04-25 02:57 59.52667 -34.25769 34170 ft 530 kts 281°
2026-04-25 02:57 59.54148 -34.39861 34171 ft 530 kts 281°
2026-04-25 02:58 59.55617 -34.53999 34180 ft 529 kts 281°
2026-04-25 02:58 59.57071 -34.68154 34174 ft 529 kts 280°
2026-04-25 02:59 59.58508 -34.82298 34166 ft 529 kts 280°
2026-04-25 02:59 59.59937 -34.96531 34175 ft 528 kts 280°
2026-04-25 03:00 59.61338 -35.10652 34177 ft 528 kts 280°
2026-04-25 03:00 59.62731 -35.24850 34185 ft 527 kts 280°
2026-04-25 03:01 59.64107 -35.39044 34190 ft 528 kts 280°
2026-04-25 03:01 59.65467 -35.53244 34188 ft 528 kts 280°
2026-04-25 03:02 59.66814 -35.67477 34188 ft 528 kts 279°
2026-04-25 03:02 59.68140 -35.81675 34194 ft 526 kts 279°
2026-04-25 03:03 59.69447 -35.95834 34199 ft 528 kts 279°
2026-04-25 03:03 59.70747 -36.10101 34193 ft 527 kts 279°
2026-04-25 03:04 59.72023 -36.24274 34195 ft 526 kts 279°
2026-04-25 03:04 59.73288 -36.38508 34201 ft 526 kts 279°
2026-04-25 03:05 59.75144 -36.59743 34205 ft 525 kts 279°
2026-04-25 03:05 59.76370 -36.74003 34192 ft 525 kts 278°
2026-04-25 03:06 59.77576 -36.88214 34214 ft 522 kts 278°
2026-04-25 03:06 59.78759 -37.02345 34199 ft 523 kts 278°
2026-04-25 03:07 59.79933 -37.16566 34214 ft 522 kts 278°
2026-04-25 03:07 59.81086 -37.30719 34215 ft 523 kts 278°
2026-04-25 03:08 59.82156 -37.44028 34225 ft 522 kts 278°
2026-04-25 03:08 59.83276 -37.58168 34227 ft 522 kts 278°
2026-04-25 03:09 59.84384 -37.72345 34229 ft 522 kts 277°
2026-04-25 03:09 59.85475 -37.86521 34227 ft 523 kts 277°
2026-04-25 03:10 59.86559 -38.00806 34232 ft 521 kts 277°
2026-04-25 03:10 59.87620 -38.15007 34222 ft 523 kts 277°
2026-04-25 03:11 59.88667 -38.29217 34222 ft 521 kts 277°
2026-04-25 03:11 59.89694 -38.43382 34236 ft 520 kts 277°
2026-04-25 03:12 59.90709 -38.57595 34238 ft 520 kts 277°
2026-04-25 03:12 59.91708 -38.71817 34234 ft 519 kts 276°
2026-04-25 03:13 59.92685 -38.85948 34233 ft 520 kts 276°
2026-04-25 03:13 59.93655 -39.00203 34228 ft 519 kts 277°
2026-04-25 03:14 59.94606 -39.14417 34246 ft 518 kts 276°
2026-04-25 03:14 59.95539 -39.28590 34246 ft 518 kts 277°
2026-04-25 03:15 59.96457 -39.42786 34242 ft 520 kts 276°
2026-04-25 03:15 59.97362 -39.57016 34263 ft 517 kts 276°
2026-04-25 03:16 59.98244 -39.71130 34260 ft 516 kts 276°
2026-04-25 03:16 59.99119 -39.85390 34258 ft 517 kts 276°
2026-04-25 03:17 59.99925 -39.99614 34256 ft 517 kts 274°
2026-04-25 03:17 60.00485 -40.13768 34269 ft 517 kts 273°
2026-04-25 03:18 60.01015 -40.28040 34276 ft 515 kts 273°
2026-04-25 03:18 60.01523 -40.42245 34280 ft 516 kts 273°
2026-04-25 03:19 60.02015 -40.56556 34264 ft 516 kts 273°
2026-04-25 03:19 60.02486 -40.70740 34287 ft 515 kts 272°
2026-04-25 03:20 60.02942 -40.84991 34275 ft 516 kts 272°
2026-04-25 03:20 60.03381 -40.99189 34288 ft 515 kts 272°
2026-04-25 03:21 60.03805 -41.13413 34292 ft 515 kts 272°
2026-04-25 03:21 60.04214 -41.27654 34305 ft 515 kts 272°
2026-04-25 03:22 60.04607 -41.41881 34310 ft 514 kts 272°
2026-04-25 03:22 60.04984 -41.56099 34321 ft 514 kts 272°
2026-04-25 03:23 60.05344 -41.70242 34317 ft 512 kts 271°
2026-04-25 03:23 60.05690 -41.84430 34307 ft 514 kts 271°
2026-04-25 03:24 60.06023 -41.98686 34340 ft 513 kts 271°
2026-04-25 03:24 60.06337 -42.12810 34308 ft 512 kts 271°
2026-04-25 03:25 60.06636 -42.26975 34335 ft 513 kts 271°
2026-04-25 03:25 60.06921 -42.41152 34350 ft 512 kts 271°
2026-04-25 03:26 60.07191 -42.55378 34349 ft 512 kts 271°
2026-04-25 03:26 60.07446 -42.69600 34332 ft 513 kts 270°
2026-04-25 03:27 60.07686 -42.83804 34348 ft 512 kts 270°
2026-04-25 03:27 60.07909 -42.97958 34348 ft 511 kts 270°
2026-04-25 03:28 60.08118 -43.12125 34342 ft 513 kts 270°
2026-04-25 03:28 60.08313 -43.26383 34352 ft 511 kts 270°
2026-04-25 03:29 60.08490 -43.40477 34320 ft 511 kts 270°
2026-04-25 03:29 60.08653 -43.54706 34316 ft 510 kts 270°
2026-04-25 03:30 60.08801 -43.68898 34306 ft 509 kts 269°
2026-04-25 03:30 60.08933 -43.82990 34285 ft 507 kts 269°
2026-04-25 03:31 60.09049 -43.97018 34276 ft 508 kts 269°
2026-04-25 03:31 60.09152 -44.11126 34276 ft 507 kts 269°
2026-04-25 03:32 60.09238 -44.25216 34271 ft 508 kts 269°
2026-04-25 03:32 60.09311 -44.39268 34263 ft 507 kts 269°
2026-04-25 03:33 60.09367 -44.53304 34263 ft 506 kts 269°
2026-04-25 03:33 60.09409 -44.67363 34267 ft 506 kts 268°
2026-04-25 03:34 60.09436 -44.81454 34257 ft 506 kts 268°
2026-04-25 03:34 60.09449 -44.95440 34242 ft 506 kts 268°
2026-04-25 03:35 60.09446 -45.09500 34242 ft 506 kts 268°
2026-04-25 03:35 60.09429 -45.23521 34260 ft 504 kts 268°
2026-04-25 03:36 60.09396 -45.37511 34272 ft 505 kts 268°
2026-04-25 03:36 60.09349 -45.51499 34277 ft 505 kts 268°
2026-04-25 03:37 60.09288 -45.65510 34278 ft 505 kts 267°
2026-04-25 03:37 60.09211 -45.79502 34278 ft 504 kts 267°
2026-04-25 03:38 60.09121 -45.93407 34284 ft 504 kts 267°
2026-04-25 03:38 60.09014 -46.07444 34282 ft 503 kts 267°
2026-04-25 03:39 60.08893 -46.21433 34285 ft 503 kts 267°
2026-04-25 03:39 60.08759 -46.35305 34284 ft 502 kts 267°
2026-04-25 03:40 60.08610 -46.49212 34287 ft 502 kts 267°
2026-04-25 03:40 60.08445 -46.63172 34284 ft 502 kts 267°
2026-04-25 03:41 60.08267 -46.77046 34289 ft 501 kts 266°
2026-04-25 03:41 60.08073 -46.91009 34282 ft 501 kts 266°
2026-04-25 03:42 60.07866 -47.04877 34282 ft 501 kts 266°
2026-04-25 03:42 60.07645 -47.18711 34296 ft 500 kts 266°
2026-04-25 03:43 60.07408 -47.32599 34290 ft 502 kts 266°
2026-04-25 03:43 60.07157 -47.46487 34291 ft 501 kts 266°
2026-04-25 03:44 60.06891 -47.60381 34298 ft 502 kts 266°
2026-04-25 03:44 60.06612 -47.74201 34301 ft 501 kts 266°
2026-04-25 03:45 60.06317 -47.88083 34308 ft 502 kts 265°
2026-04-25 03:45 60.06008 -48.01948 34299 ft 502 kts 265°
2026-04-25 03:46 60.05683 -48.15857 34299 ft 501 kts 265°
2026-04-25 03:46 60.05345 -48.29703 34298 ft 501 kts 265°
2026-04-25 03:47 60.04994 -48.43536 34302 ft 501 kts 265°
2026-04-25 03:47 60.04624 -48.57477 34305 ft 502 kts 266°
2026-04-25 03:48 60.04243 -48.71335 34290 ft 500 kts 265°
2026-04-25 03:48 60.03846 -48.85201 34300 ft 502 kts 265°
2026-04-25 03:49 60.03438 -48.98956 34304 ft 501 kts 265°
2026-04-25 03:49 60.03011 -49.12867 34309 ft 500 kts 265°
2026-04-25 03:50 60.02572 -49.26672 34310 ft 501 kts 265°
2026-04-25 03:50 60.02117 -49.40536 34304 ft 502 kts 265°
2026-04-25 03:51 60.01649 -49.54371 34310 ft 502 kts 265°
2026-04-25 03:51 60.01165 -49.68209 34320 ft 503 kts 264°
2026-04-25 03:52 60.00664 -49.82131 34319 ft 502 kts 264°
2026-04-25 03:52 60.00155 -49.95896 34310 ft 503 kts 264°
2026-04-25 03:53 59.99651 -50.09763 34315 ft 502 kts 264°
2026-04-25 03:53 59.99138 -50.23666 34325 ft 502 kts 264°
2026-04-25 03:54 59.98616 -50.37438 34318 ft 502 kts 264°
2026-04-25 03:54 59.98078 -50.51258 34316 ft 502 kts 264°
2026-04-25 03:55 59.97522 -50.65137 34337 ft 502 kts 264°
2026-04-25 03:55 59.96955 -50.78950 34323 ft 502 kts 264°
2026-04-25 03:56 59.96375 -50.92736 34326 ft 502 kts 263°
2026-04-25 03:56 59.95776 -51.06590 34318 ft 502 kts 264°
2026-04-25 03:57 59.95166 -51.20397 34316 ft 503 kts 264°
2026-04-25 03:57 59.94540 -51.34209 34320 ft 502 kts 264°
2026-04-25 03:58 59.93901 -51.47992 34332 ft 501 kts 264°
2026-04-25 03:58 59.93248 -51.61757 34335 ft 502 kts 264°
2026-04-25 03:59 59.92581 -51.75520 34314 ft 501 kts 263°
2026-04-25 03:59 59.91900 -51.89275 34328 ft 502 kts 263°
2026-04-25 04:00 59.91201 -52.03086 34347 ft 500 kts 263°
2026-04-25 04:00 59.90496 -52.16728 34341 ft 501 kts 263°
2026-04-25 04:01 59.89766 -52.30563 34352 ft 501 kts 263°
2026-04-25 04:01 59.89031 -52.44235 34354 ft 502 kts 263°
2026-04-25 04:02 59.88275 -52.58017 34350 ft 502 kts 263°
2026-04-25 04:02 59.87509 -52.71715 34361 ft 502 kts 262°
2026-04-25 04:03 59.86723 -52.85493 34352 ft 502 kts 262°
2026-04-25 04:03 59.85928 -52.99198 34343 ft 503 kts 263°
2026-04-25 04:04 59.85113 -53.12980 34348 ft 502 kts 263°
2026-04-25 04:04 59.84290 -53.26644 34362 ft 503 kts 263°
2026-04-25 04:05 59.83445 -53.40443 34353 ft 502 kts 263°
2026-04-25 04:05 59.82595 -53.54074 34372 ft 503 kts 263°
2026-04-25 04:06 59.81726 -53.67776 34356 ft 503 kts 262°
2026-04-25 04:06 59.80841 -53.81503 34346 ft 502 kts 262°
2026-04-25 04:07 59.79938 -53.95274 34369 ft 503 kts 262°
2026-04-25 04:07 59.79025 -54.08981 34358 ft 503 kts 262°
2026-04-25 04:08 59.78104 -54.22581 34374 ft 503 kts 262°
2026-04-25 04:08 59.77162 -54.36275 34370 ft 503 kts 262°
2026-04-25 04:09 59.76207 -54.49946 34389 ft 502 kts 262°
2026-04-25 04:09 59.75232 -54.63681 34379 ft 502 kts 262°
2026-04-25 04:10 59.74253 -54.77277 34363 ft 502 kts 261°
2026-04-25 04:10 59.73259 -54.90865 34371 ft 503 kts 261°
2026-04-25 04:11 59.71735 -55.11346 34382 ft 501 kts 262°
2026-04-25 04:12 59.70704 -55.24939 34381 ft 502 kts 262°
2026-04-25 04:12 59.69664 -55.38475 34370 ft 501 kts 262°
2026-04-25 04:13 59.68605 -55.52045 34365 ft 501 kts 262°
2026-04-25 04:13 59.67535 -55.65588 34386 ft 500 kts 261°
2026-04-25 04:14 59.66449 -55.79149 34391 ft 500 kts 261°
2026-04-25 04:14 59.65352 -55.92646 34373 ft 500 kts 261°
2026-04-25 04:15 59.64238 -56.06189 34397 ft 500 kts 261°
2026-04-25 04:15 59.63131 -56.19466 34393 ft 500 kts 261°
2026-04-25 04:16 59.61988 -56.32996 34393 ft 500 kts 261°
2026-04-25 04:16 59.60841 -56.46412 34397 ft 500 kts 261°
2026-04-25 04:17 59.59670 -56.59937 34397 ft 500 kts 262°
2026-04-25 04:17 59.58490 -56.73389 34404 ft 501 kts 261°
2026-04-25 04:18 59.57294 -56.86860 34405 ft 501 kts 261°
2026-04-25 04:18 59.56086 -57.00306 34407 ft 501 kts 261°
2026-04-25 04:19 59.54868 -57.13697 34411 ft 502 kts 261°
2026-04-25 04:19 59.53621 -57.27242 34417 ft 502 kts 261°
2026-04-25 04:20 59.52368 -57.40690 34421 ft 502 kts 261°
2026-04-25 04:20 59.51104 -57.54093 34427 ft 503 kts 262°
2026-04-25 04:21 59.49818 -57.67580 34425 ft 503 kts 261°
2026-04-25 04:21 59.48519 -57.81055 34417 ft 504 kts 261°
2026-04-25 04:22 59.47205 -57.94525 34427 ft 503 kts 261°
2026-04-25 04:22 59.46014 -58.08065 34431 ft 503 kts 265°
2026-04-25 04:23 59.45103 -58.21642 34435 ft 504 kts 265°
2026-04-25 04:23 59.44169 -58.35173 34438 ft 504 kts 265°
2026-04-25 04:24 59.43203 -58.48768 34434 ft 505 kts 265°
2026-04-25 04:24 59.42213 -58.62406 34443 ft 505 kts 265°
2026-04-25 04:25 59.41209 -58.75985 34434 ft 505 kts 264°
2026-04-25 04:25 59.40188 -58.89562 34446 ft 506 kts 264°
2026-04-25 04:26 59.39147 -59.03200 34452 ft 508 kts 265°
2026-04-25 04:26 59.38098 -59.16746 34457 ft 506 kts 265°
2026-04-25 04:27 59.37027 -59.30376 34468 ft 507 kts 265°
2026-04-25 04:27 59.35945 -59.43965 34469 ft 509 kts 265°
2026-04-25 04:28 59.34838 -59.57665 34469 ft 507 kts 265°
2026-04-25 04:28 59.33724 -59.71280 34461 ft 511 kts 264°
2026-04-25 04:29 59.32595 -59.84872 34458 ft 509 kts 265°
2026-04-25 04:29 59.31448 -59.98523 34472 ft 510 kts 265°
2026-04-25 04:30 59.30281 -60.12228 34468 ft 512 kts 265°
2026-04-25 04:30 59.29102 -60.25890 34470 ft 510 kts 265°
2026-04-25 04:31 59.27912 -60.39510 34479 ft 513 kts 265°
2026-04-25 04:31 59.26701 -60.53193 34485 ft 513 kts 265°
2026-04-25 04:32 59.25481 -60.66807 34484 ft 512 kts 264°
2026-04-25 04:32 59.24236 -60.80533 34486 ft 516 kts 264°
2026-04-25 04:33 59.22980 -60.94201 34490 ft 514 kts 264°
2026-04-25 04:33 59.21691 -61.07861 34497 ft 516 kts 262°
2026-04-25 04:34 59.20086 -61.21430 34503 ft 515 kts 261°
2026-04-25 04:34 59.18434 -61.35028 34499 ft 517 kts 261°
2026-04-25 04:35 59.16774 -61.48544 34505 ft 517 kts 262°
2026-04-25 04:35 59.15092 -61.62116 34513 ft 517 kts 261°
2026-04-25 04:36 59.13386 -61.75749 34509 ft 517 kts 261°
2026-04-25 04:36 59.11685 -61.89222 34504 ft 519 kts 261°
2026-04-25 04:37 59.09954 -62.02796 34514 ft 516 kts 261°
2026-04-25 04:37 59.08216 -62.16317 34519 ft 517 kts 261°
2026-04-25 04:38 59.06467 -62.29791 34536 ft 516 kts 261°
2026-04-25 04:38 59.04699 -62.43292 34535 ft 518 kts 261°
2026-04-25 04:39 59.02919 -62.56758 34542 ft 517 kts 261°
2026-04-25 04:39 59.01127 -62.70202 34545 ft 517 kts 260°
2026-04-25 04:40 58.99318 -62.83654 34553 ft 519 kts 260°
2026-04-25 04:40 58.97492 -62.97113 34556 ft 517 kts 260°
2026-04-25 04:41 58.95652 -63.10559 34532 ft 519 kts 260°
2026-04-25 04:41 58.93790 -63.24048 34497 ft 520 kts 260°
2026-04-25 04:42 58.92071 -63.36400 34472 ft 520 kts 260°
2026-04-25 04:42 58.90187 -63.49822 34452 ft 520 kts 260°
2026-04-25 04:43 58.88276 -63.63329 34449 ft 522 kts 260°
2026-04-25 04:43 58.86340 -63.76894 34463 ft 522 kts 259°
2026-04-25 04:44 58.84409 -63.90310 34432 ft 524 kts 259°
2026-04-25 04:44 58.82450 -64.03811 34414 ft 524 kts 259°
2026-04-25 04:45 58.80470 -64.17338 34392 ft 524 kts 259°
2026-04-25 04:45 58.78493 -64.30737 34368 ft 524 kts 259°
2026-04-25 04:46 58.76503 -64.44114 34364 ft 523 kts 259°
2026-04-25 04:46 58.74483 -64.57593 34385 ft 525 kts 259°
2026-04-25 04:47 58.72448 -64.71049 34408 ft 525 kts 258°
2026-04-25 04:47 58.70410 -64.84422 34409 ft 525 kts 258°
2026-04-25 04:48 58.68346 -64.97861 34392 ft 526 kts 258°
2026-04-25 04:48 58.66268 -65.11282 34395 ft 526 kts 258°
2026-04-25 04:49 58.64171 -65.24716 34429 ft 527 kts 258°
2026-04-25 04:49 58.62066 -65.38100 34436 ft 528 kts 258°
2026-04-25 04:50 58.59938 -65.51520 34432 ft 527 kts 258°
2026-04-25 04:50 58.57794 -65.64946 34439 ft 528 kts 258°
2026-04-25 04:51 58.55643 -65.78303 34449 ft 527 kts 257°
2026-04-25 04:51 58.53471 -65.91693 34469 ft 529 kts 257°
2026-04-25 04:52 58.51282 -66.05080 34492 ft 527 kts 257°
2026-04-25 04:52 58.49080 -66.18454 34479 ft 531 kts 257°
2026-04-25 04:53 58.46864 -66.31805 34472 ft 528 kts 257°
2026-04-25 04:53 58.44647 -66.45064 34476 ft 530 kts 257°
2026-04-25 04:54 58.42398 -66.58410 34478 ft 527 kts 257°
2026-04-25 04:54 58.40138 -66.71732 34494 ft 530 kts 256°
2026-04-25 04:55 58.37867 -66.85011 34498 ft 528 kts 256°
2026-04-25 04:55 58.35585 -66.98264 34497 ft 530 kts 256°
2026-04-25 04:56 58.33275 -67.11574 34493 ft 529 kts 256°
2026-04-25 04:56 58.30976 -67.24733 34499 ft 530 kts 256°
2026-04-25 04:57 58.28635 -67.38035 34507 ft 531 kts 256°
2026-04-25 04:57 58.26298 -67.51215 34514 ft 529 kts 256°
2026-04-25 04:58 58.23946 -67.64392 34516 ft 531 kts 256°
2026-04-25 04:58 58.21550 -67.77716 34511 ft 529 kts 255°
2026-04-25 04:59 58.19137 -67.91039 34506 ft 532 kts 255°
2026-04-25 04:59 58.16740 -68.04182 34510 ft 530 kts 255°
2026-04-25 05:00 58.14325 -68.17333 34522 ft 533 kts 255°
2026-04-25 05:00 58.11898 -68.30453 34530 ft 530 kts 255°
2026-04-25 05:01 58.09529 -68.43667 34528 ft 527 kts 260°
2026-04-25 05:01 58.08454 -68.57130 34534 ft 519 kts 270°
2026-04-25 05:02 58.07735 -68.70709 34529 ft 520 kts 269°
2026-04-25 05:02 58.06955 -68.84187 34525 ft 518 kts 268°
2026-04-25 05:03 58.06125 -68.97730 34517 ft 518 kts 268°
2026-04-25 05:03 58.05275 -69.11088 34503 ft 518 kts 268°
2026-04-25 05:04 58.04391 -69.24591 34499 ft 518 kts 268°
2026-04-25 05:04 58.03493 -69.37998 34499 ft 517 kts 268°
2026-04-25 05:05 58.02580 -69.51379 34495 ft 516 kts 268°
2026-04-25 05:05 58.01652 -69.64728 34489 ft 515 kts 268°
2026-04-25 05:06 58.00699 -69.78223 34466 ft 516 kts 266°
2026-04-25 05:06 57.99741 -69.91575 34484 ft 514 kts 266°
2026-04-25 05:07 57.98769 -70.04908 34501 ft 515 kts 266°
2026-04-25 05:07 57.97782 -70.18259 34501 ft 515 kts 266°
2026-04-25 05:08 57.96785 -70.31531 34495 ft 514 kts 266°
2026-04-25 05:08 57.95778 -70.44760 34490 ft 514 kts 266°
2026-04-25 05:09 57.94756 -70.57999 34480 ft 514 kts 266°
2026-04-25 05:09 57.93716 -70.71278 34474 ft 514 kts 265°
2026-04-25 05:10 57.92665 -70.84512 34478 ft 513 kts 265°
2026-04-25 05:10 57.91602 -70.97711 34466 ft 513 kts 265°
2026-04-25 05:11 57.90527 -71.10892 34469 ft 512 kts 265°
2026-04-25 05:11 57.89430 -71.24166 34463 ft 512 kts 265°
2026-04-25 05:12 57.87774 -71.43876 34468 ft 511 kts 265°
2026-04-25 05:12 57.86644 -71.57114 34471 ft 510 kts 265°
2026-04-25 05:13 57.85509 -71.70235 34468 ft 511 kts 264°
2026-04-25 05:13 57.84358 -71.83381 34462 ft 511 kts 264°
2026-04-25 05:14 57.83195 -71.96502 34468 ft 511 kts 264°
2026-04-25 05:15 57.81427 -72.16135 34470 ft 512 kts 264°
2026-04-25 05:15 57.80230 -72.29243 34477 ft 513 kts 264°
2026-04-25 05:16 57.79015 -72.42381 34479 ft 513 kts 264°
2026-04-25 05:16 57.77788 -72.55495 34462 ft 512 kts 264°
2026-04-25 05:17 57.76543 -72.68642 34472 ft 514 kts 263°
2026-04-25 05:17 57.75288 -72.81758 34463 ft 515 kts 263°
2026-04-25 05:18 57.74010 -72.94936 34459 ft 514 kts 264°
2026-04-25 05:18 57.72724 -73.08073 34449 ft 515 kts 263°
2026-04-25 05:19 57.71424 -73.21191 34460 ft 515 kts 264°
2026-04-25 05:19 57.70117 -73.34242 34455 ft 516 kts 264°
2026-04-25 05:20 57.68759 -73.47649 34453 ft 517 kts 264°
2026-04-25 05:20 57.67416 -73.60751 34440 ft 516 kts 263°
2026-04-25 05:21 57.66055 -73.73903 34441 ft 519 kts 263°
2026-04-25 05:21 57.64673 -73.87109 34445 ft 518 kts 263°
2026-04-25 05:22 57.63289 -74.00197 34451 ft 517 kts 263°
2026-04-25 05:22 57.61880 -74.13379 34461 ft 520 kts 263°
2026-04-25 05:23 57.60466 -74.26468 34458 ft 518 kts 263°
2026-04-25 05:23 57.59024 -74.39683 34459 ft 520 kts 263°
2026-04-25 05:24 57.57581 -74.52766 34452 ft 519 kts 263°
2026-04-25 05:24 57.56119 -74.65894 34446 ft 521 kts 262°
2026-04-25 05:25 57.54641 -74.79041 34429 ft 522 kts 262°
2026-04-25 05:25 57.53142 -74.92222 34439 ft 520 kts 263°
2026-04-25 05:26 57.51629 -75.05412 34439 ft 523 kts 263°
2026-04-25 05:26 57.50109 -75.18520 34429 ft 522 kts 263°
2026-04-25 05:27 57.48556 -75.31789 34422 ft 522 kts 263°
2026-04-25 05:27 57.46997 -75.44979 34436 ft 522 kts 263°
2026-04-25 05:28 57.45438 -75.58045 34438 ft 524 kts 263°
2026-04-25 05:28 57.43850 -75.71216 34431 ft 521 kts 262°
2026-04-25 05:29 57.42258 -75.84314 34433 ft 522 kts 262°
2026-04-25 05:29 57.40653 -75.97388 34435 ft 523 kts 262°
2026-04-25 05:30 57.39023 -76.10547 34434 ft 526 kts 262°
2026-04-25 05:30 57.37389 -76.23595 34432 ft 519 kts 262°
2026-04-25 05:31 57.35751 -76.36587 34434 ft 521 kts 262°
2026-04-25 05:31 57.34084 -76.49676 34444 ft 524 kts 262°
2026-04-25 05:32 57.32407 -76.62717 34433 ft 520 kts 262°
2026-04-25 05:32 57.30729 -76.75658 34444 ft 519 kts 261°
2026-04-25 05:33 57.29037 -76.88598 34442 ft 522 kts 261°
2026-04-25 05:33 57.27326 -77.01567 34436 ft 521 kts 261°
2026-04-25 05:34 57.25607 -77.14473 34447 ft 520 kts 261°
2026-04-25 05:34 57.23871 -77.27415 34439 ft 521 kts 261°
2026-04-25 05:35 57.22125 -77.40305 34435 ft 518 kts 261°
2026-04-25 05:35 57.20368 -77.53169 34431 ft 519 kts 261°
2026-04-25 05:36 57.18607 -77.65953 34432 ft 516 kts 260°
2026-04-25 05:36 57.16838 -77.78697 34424 ft 518 kts 260°
2026-04-25 05:37 57.15042 -77.91522 34427 ft 515 kts 260°
2026-04-25 05:37 57.13245 -78.04258 34419 ft 515 kts 260°
2026-04-25 05:38 57.11445 -78.16908 34410 ft 515 kts 260°
2026-04-25 05:38 57.09621 -78.29618 34411 ft 514 kts 260°
2026-04-25 05:39 57.07806 -78.42172 34416 ft 513 kts 260°
2026-04-25 05:39 57.05963 -78.54820 34403 ft 514 kts 260°
2026-04-25 05:40 57.04104 -78.67471 34395 ft 515 kts 259°
2026-04-25 05:40 57.02235 -78.80096 34403 ft 512 kts 258°
2026-04-25 05:41 57.00350 -78.92726 34396 ft 513 kts 259°
2026-04-25 05:41 56.98462 -79.05280 34388 ft 513 kts 259°
2026-04-25 05:42 56.96563 -79.17810 34387 ft 510 kts 258°
2026-04-25 05:42 56.94651 -79.30337 34385 ft 513 kts 258°
2026-04-25 05:43 56.92738 -79.42774 34390 ft 510 kts 258°
2026-04-25 05:43 56.90797 -79.55300 34388 ft 512 kts 258°
2026-04-25 05:44 56.88864 -79.67678 34363 ft 512 kts 257°
2026-04-25 05:44 56.86906 -79.80122 34372 ft 509 kts 257°
2026-04-25 05:45 56.84952 -79.92455 34373 ft 508 kts 257°
2026-04-25 05:45 56.82561 -80.04604 34373 ft 511 kts 251°
2026-04-25 05:46 56.79911 -80.16605 34365 ft 512 kts 251°
2026-04-25 05:46 56.77244 -80.28484 34368 ft 511 kts 251°
2026-04-25 05:47 56.74536 -80.40405 34362 ft 511 kts 251°
2026-04-25 05:47 56.71794 -80.52364 34357 ft 511 kts 251°
2026-04-25 05:48 56.69053 -80.64229 34356 ft 512 kts 251°
2026-04-25 05:48 56.66280 -80.76157 34353 ft 512 kts 250°
2026-04-25 05:49 56.63512 -80.87983 34352 ft 512 kts 250°
2026-04-25 05:49 56.60727 -80.99819 34346 ft 512 kts 249°
2026-04-25 05:50 56.57925 -81.11660 34340 ft 512 kts 249°
2026-04-25 05:50 56.55126 -81.23423 34346 ft 512 kts 249°
2026-04-25 05:51 56.52315 -81.35169 34344 ft 510 kts 249°
2026-04-25 05:51 56.49479 -81.46957 34351 ft 512 kts 249°
2026-04-25 05:52 56.46641 -81.58684 34339 ft 510 kts 249°
2026-04-25 05:52 56.43986 -81.69606 34336 ft 513 kts 248°
2026-04-25 05:53 56.41127 -81.81303 34343 ft 509 kts 248°
2026-04-25 05:53 56.38271 -81.92923 34339 ft 511 kts 248°
2026-04-25 05:54 56.35400 -82.04544 34347 ft 509 kts 248°
2026-04-25 05:54 56.31088 -82.21884 34328 ft 508 kts 248°
2026-04-25 05:55 56.28189 -82.33466 34322 ft 509 kts 248°
2026-04-25 05:55 56.25288 -82.44994 34320 ft 509 kts 248°
2026-04-25 05:56 56.22359 -82.56576 34325 ft 509 kts 248°
2026-04-25 05:56 56.19437 -82.68067 34319 ft 509 kts 247°
2026-04-25 05:57 56.16497 -82.79572 34304 ft 509 kts 247°
2026-04-25 05:57 56.13545 -82.91061 34317 ft 509 kts 247°
2026-04-25 05:58 56.10573 -83.02572 34308 ft 511 kts 247°
2026-04-25 05:58 56.07604 -83.14011 34309 ft 509 kts 247°
2026-04-25 05:59 56.04624 -83.25430 34300 ft 508 kts 247°
2026-04-25 05:59 56.01640 -83.36814 34292 ft 508 kts 246°
2026-04-25 06:00 55.98646 -83.48173 34302 ft 507 kts 246°
2026-04-25 06:00 55.95656 -83.59462 34291 ft 506 kts 246°
2026-04-25 06:01 55.92655 -83.70738 34286 ft 503 kts 245°
2026-04-25 06:01 55.89656 -83.81950 34277 ft 502 kts 245°
2026-04-25 06:02 55.86662 -83.93084 34272 ft 500 kts 245°
2026-04-25 06:02 55.83653 -84.04226 34268 ft 500 kts 245°
2026-04-25 06:03 55.80644 -84.15311 34272 ft 501 kts 245°
2026-04-25 06:03 55.77638 -84.26331 34263 ft 500 kts 245°
2026-04-25 06:04 55.74612 -84.37369 34267 ft 499 kts 245°
2026-04-25 06:04 55.71576 -84.48391 34265 ft 497 kts 244°
2026-04-25 06:05 55.68545 -84.59345 34262 ft 499 kts 244°
2026-04-25 06:05 55.65496 -84.70308 34249 ft 498 kts 243°
2026-04-25 06:06 55.62456 -84.81189 34250 ft 495 kts 243°
2026-04-25 06:06 55.59404 -84.92062 34250 ft 494 kts 243°
2026-04-25 06:07 55.56352 -85.02886 34237 ft 493 kts 243°
2026-04-25 06:07 55.53299 -85.13660 34237 ft 493 kts 243°
2026-04-25 06:08 55.50217 -85.24485 34231 ft 493 kts 243°
2026-04-25 06:08 55.47149 -85.35214 34235 ft 493 kts 243°
2026-04-25 06:09 55.44068 -85.45937 34238 ft 492 kts 242°
2026-04-25 06:09 55.40972 -85.56664 34227 ft 492 kts 242°
2026-04-25 06:10 55.37881 -85.67323 34221 ft 491 kts 241°
2026-04-25 06:10 55.34774 -85.77989 34215 ft 490 kts 241°
2026-04-25 06:11 55.31666 -85.88612 34211 ft 490 kts 241°
2026-04-25 06:11 55.28571 -85.99141 34207 ft 490 kts 241°
2026-04-25 06:12 55.25456 -86.09690 34201 ft 489 kts 241°
2026-04-25 06:12 55.22314 -86.20285 34193 ft 488 kts 240°
2026-04-25 06:13 55.19192 -86.30765 34194 ft 488 kts 241°
2026-04-25 06:14 55.14482 -86.46485 34179 ft 488 kts 240°
2026-04-25 06:14 55.11349 -86.56887 34176 ft 487 kts 240°
2026-04-25 06:15 55.08185 -86.67345 34161 ft 486 kts 239°
2026-04-25 06:15 55.05056 -86.77642 34161 ft 485 kts 239°
2026-04-25 06:16 55.01891 -86.88010 34154 ft 482 kts 239°
2026-04-25 06:16 54.98747 -86.98268 34154 ft 482 kts 239°
2026-04-25 06:17 54.95598 -87.08497 34148 ft 482 kts 238°
2026-04-25 06:17 54.92425 -87.18756 34135 ft 481 kts 238°
2026-04-25 06:18 54.89252 -87.28976 34142 ft 481 kts 238°
2026-04-25 06:18 54.86065 -87.39193 34136 ft 481 kts 238°
2026-04-25 06:19 54.82903 -87.49291 34131 ft 481 kts 238°
2026-04-25 06:19 54.79704 -87.59460 34132 ft 481 kts 238°
2026-04-25 06:20 54.76494 -87.69627 34114 ft 480 kts 237°
2026-04-25 06:20 54.73289 -87.79730 34106 ft 479 kts 237°
2026-04-25 06:21 54.70097 -87.89751 34104 ft 479 kts 237°
2026-04-25 06:21 54.66877 -87.99819 34097 ft 480 kts 237°
2026-04-25 06:22 54.63661 -88.09833 34091 ft 478 kts 237°
2026-04-25 06:22 54.60434 -88.19836 34091 ft 479 kts 236°
2026-04-25 06:23 54.57207 -88.29801 34088 ft 477 kts 236°
2026-04-25 06:23 54.53967 -88.39766 34079 ft 478 kts 236°
2026-04-25 06:24 54.50730 -88.49680 34071 ft 478 kts 236°
2026-04-25 06:24 54.47489 -88.59566 34067 ft 477 kts 236°
2026-04-25 06:25 54.44221 -88.69494 34064 ft 476 kts 235°
2026-04-25 06:25 54.40954 -88.79378 34070 ft 477 kts 234°
2026-04-25 06:26 54.37700 -88.89182 34056 ft 476 kts 234°
2026-04-25 06:26 54.34412 -88.99049 34049 ft 476 kts 234°
2026-04-25 06:27 54.31152 -89.08795 34041 ft 474 kts 234°
2026-04-25 06:27 54.27873 -89.18556 34042 ft 475 kts 234°
2026-04-25 06:28 54.24570 -89.28347 34036 ft 476 kts 233°
2026-04-25 06:28 54.21282 -89.38059 34032 ft 474 kts 233°
2026-04-25 06:29 54.17972 -89.47794 34033 ft 477 kts 233°
2026-04-25 06:29 54.14654 -89.57520 34020 ft 473 kts 233°
2026-04-25 06:30 54.11335 -89.67202 34015 ft 476 kts 232°
2026-04-25 06:30 54.07990 -89.76931 34012 ft 473 kts 232°
2026-04-25 06:31 54.04677 -89.86520 34006 ft 475 kts 232°
2026-04-25 06:31 54.01334 -89.96165 34095 ft 474 kts 232°
2026-04-25 06:32 53.98031 -90.05680 34988 ft 458 kts 244°
2026-04-25 06:32 53.96445 -90.10283 34760 ft 445 kts 244°
2026-04-25 06:32 53.94914 -90.14723 34509 ft 434 kts 245°
2026-04-25 06:32 53.93403 -90.19102 34269 ft 431 kts 245°
2026-04-25 06:33 53.91885 -90.23502 34224 ft 438 kts 244°
2026-04-25 06:33 53.88794 -90.32418 34211 ft 437 kts 244°
2026-04-25 06:34 53.85708 -90.41280 34219 ft 439 kts 244°
2026-04-25 06:34 53.82626 -90.50092 34209 ft 436 kts 244°
2026-04-25 06:35 53.79537 -90.58897 34219 ft 438 kts 244°
2026-04-25 06:35 53.76427 -90.67725 34227 ft 438 kts 244°
2026-04-25 06:36 53.73306 -90.76557 34227 ft 438 kts 243°
2026-04-25 06:36 53.70183 -90.85360 34222 ft 437 kts 243°
2026-04-25 06:37 53.67056 -90.94147 34224 ft 439 kts 243°
2026-04-25 06:37 53.63931 -91.02890 34223 ft 439 kts 244°
2026-04-25 06:38 53.60786 -91.11662 34224 ft 438 kts 243°
2026-04-25 06:38 53.57621 -91.20461 34224 ft 439 kts 243°
2026-04-25 06:39 53.54473 -91.29179 34214 ft 438 kts 243°
2026-04-25 06:39 53.51313 -91.37901 34216 ft 438 kts 243°
2026-04-25 06:40 53.48158 -91.46576 34221 ft 438 kts 243°
2026-04-25 06:40 53.44971 -91.55311 34216 ft 438 kts 243°
2026-04-25 06:41 53.41788 -91.64005 34217 ft 440 kts 243°
2026-04-25 06:41 53.38569 -91.72769 34225 ft 440 kts 243°
2026-04-25 06:42 53.35384 -91.81405 34219 ft 438 kts 243°
2026-04-25 06:42 53.32188 -91.90044 34224 ft 440 kts 242°
2026-04-25 06:43 53.28986 -91.98668 34224 ft 438 kts 242°
2026-04-25 06:43 53.25770 -92.07302 34230 ft 439 kts 242°
2026-04-25 06:44 53.22548 -92.15922 34224 ft 439 kts 242°
2026-04-25 06:44 53.19309 -92.24556 34222 ft 439 kts 242°
2026-04-25 06:45 53.16066 -92.33173 34227 ft 439 kts 242°
2026-04-25 06:45 53.12837 -92.41722 34220 ft 440 kts 242°
2026-04-25 06:46 53.09585 -92.50301 34220 ft 438 kts 242°
2026-04-25 06:46 53.06375 -92.58744 34224 ft 440 kts 242°
2026-04-25 06:47 53.03106 -92.67317 34228 ft 449 kts 241°
2026-04-25 06:47 52.99686 -92.76257 34232 ft 467 kts 241°
2026-04-25 06:48 52.96167 -92.85411 34235 ft 469 kts 241°
2026-04-25 06:48 52.92659 -92.94504 34224 ft 471 kts 241°
2026-04-25 06:49 52.89135 -93.03606 34240 ft 470 kts 241°
2026-04-25 06:49 52.85603 -93.12701 34235 ft 470 kts 241°
2026-04-25 06:50 52.82664 -93.20242 34229 ft 470 kts 241°
2026-04-25 06:50 52.78770 -93.30198 34235 ft 470 kts 241°
2026-04-25 06:51 52.75221 -93.39240 34227 ft 470 kts 241°
2026-04-25 06:51 52.71673 -93.48247 34243 ft 472 kts 241°
2026-04-25 06:52 52.68105 -93.57272 34233 ft 471 kts 241°
2026-04-25 06:52 52.64548 -93.66238 34242 ft 470 kts 240°
2026-04-25 06:53 52.60941 -93.75298 34240 ft 472 kts 240°
2026-04-25 06:53 52.57354 -93.84276 34243 ft 472 kts 240°
2026-04-25 06:54 52.53766 -93.93225 34243 ft 471 kts 240°
2026-04-25 06:54 52.50162 -94.02183 34248 ft 472 kts 240°
2026-04-25 06:55 52.46533 -94.11169 34240 ft 472 kts 240°
2026-04-25 06:55 52.42919 -94.20087 34256 ft 473 kts 240°
2026-04-25 06:56 52.39295 -94.29000 34251 ft 472 kts 240°
2026-04-25 06:56 52.35640 -94.37958 34253 ft 473 kts 240°
2026-04-25 06:57 52.32001 -94.46844 34245 ft 474 kts 239°
2026-04-25 06:57 52.28336 -94.55763 34256 ft 473 kts 239°
2026-04-25 06:58 52.24688 -94.64610 34246 ft 473 kts 239°
2026-04-25 06:58 52.21010 -94.73499 34249 ft 474 kts 239°
2026-04-25 06:59 52.17332 -94.82357 34254 ft 474 kts 239°
2026-04-25 06:59 52.13618 -94.91272 34267 ft 474 kts 239°
2026-04-25 07:00 52.09945 -95.00057 34269 ft 475 kts 239°
2026-04-25 07:00 52.06218 -95.08941 34270 ft 474 kts 239°
2026-04-25 07:01 52.02513 -95.17743 34251 ft 474 kts 238°
2026-04-25 07:01 51.98780 -95.26578 34248 ft 474 kts 238°
2026-04-25 07:02 51.95052 -95.35373 34257 ft 474 kts 238°
2026-04-25 07:02 51.91324 -95.44139 34267 ft 475 kts 238°
2026-04-25 07:03 51.87558 -95.52964 34252 ft 475 kts 238°
2026-04-25 07:03 51.83805 -95.61726 34268 ft 474 kts 239°
2026-04-25 07:04 51.80040 -95.70490 34284 ft 475 kts 238°
2026-04-25 07:04 51.76262 -95.79252 34292 ft 474 kts 238°
2026-04-25 07:05 51.72507 -95.87929 34291 ft 474 kts 238°
2026-04-25 07:05 51.68722 -95.96650 34299 ft 474 kts 238°
2026-04-25 07:06 51.64950 -96.05310 34292 ft 473 kts 238°
2026-04-25 07:06 51.61188 -96.13920 34288 ft 475 kts 238°
2026-04-25 07:07 51.57396 -96.22566 34297 ft 474 kts 238°
2026-04-25 07:07 51.53606 -96.31183 34277 ft 473 kts 238°
2026-04-25 07:08 51.49800 -96.39804 34293 ft 474 kts 238°
2026-04-25 07:08 51.46006 -96.48372 34305 ft 473 kts 237°
2026-04-25 07:09 51.42198 -96.56941 34291 ft 473 kts 237°
2026-04-25 07:09 51.38400 -96.65460 34320 ft 474 kts 237°
2026-04-25 07:10 51.34555 -96.74056 34310 ft 472 kts 237°
2026-04-25 07:10 51.30745 -96.82547 34311 ft 473 kts 237°
2026-04-25 07:11 51.26887 -96.91116 34320 ft 473 kts 237°
2026-04-25 07:11 51.23058 -96.99593 34317 ft 473 kts 237°
2026-04-25 07:12 51.19202 -97.08101 34328 ft 472 kts 237°
2026-04-25 07:12 51.13411 -97.20827 34325 ft 472 kts 237°
2026-04-25 07:13 51.09580 -97.29213 34325 ft 472 kts 237°
2026-04-25 07:13 51.05711 -97.37652 34337 ft 472 kts 237°
2026-04-25 07:14 51.01853 -97.46042 34322 ft 473 kts 236°
2026-04-25 07:14 50.97989 -97.54417 34339 ft 472 kts 237°
2026-04-25 07:15 50.94097 -97.62826 34335 ft 472 kts 237°
2026-04-25 07:15 50.90212 -97.71195 34320 ft 473 kts 236°
2026-04-25 07:16 50.86303 -97.79585 34330 ft 473 kts 236°
2026-04-25 07:16 50.82406 -97.87923 34309 ft 473 kts 236°
2026-04-25 07:17 50.78514 -97.96226 34328 ft 472 kts 236°
2026-04-25 07:17 50.74606 -98.04536 34306 ft 472 kts 236°
2026-04-25 07:18 50.70694 -98.12827 34306 ft 472 kts 236°
2026-04-25 07:18 50.66758 -98.21144 34309 ft 473 kts 236°
2026-04-25 07:19 50.62856 -98.29360 34303 ft 472 kts 236°
2026-04-25 07:19 50.58931 -98.37601 34290 ft 472 kts 236°
2026-04-25 07:20 50.54980 -98.45873 34278 ft 472 kts 236°
2026-04-25 07:20 50.51049 -98.54072 34293 ft 473 kts 236°
2026-04-25 07:21 50.47098 -98.62289 34282 ft 472 kts 236°
2026-04-25 07:21 50.43129 -98.70519 34269 ft 473 kts 235°
2026-04-25 07:22 50.39398 -98.78949 34275 ft 471 kts 239°
2026-04-25 07:22 50.35908 -98.87586 34263 ft 471 kts 239°
2026-04-25 07:23 50.32390 -98.96196 34281 ft 470 kts 239°
2026-04-25 07:23 50.28856 -99.04773 34267 ft 471 kts 239°
2026-04-25 07:24 50.25320 -99.13309 34261 ft 471 kts 239°
2026-04-25 07:24 50.21759 -99.21864 34254 ft 471 kts 239°
2026-04-25 07:25 50.18185 -99.30418 34266 ft 471 kts 239°
2026-04-25 07:25 50.14618 -99.38924 34249 ft 470 kts 239°
2026-04-25 07:26 50.11042 -99.47421 34238 ft 471 kts 239°
2026-04-25 07:26 50.07442 -99.55948 34256 ft 471 kts 239°
2026-04-25 07:27 50.03851 -99.64425 34246 ft 471 kts 239°
2026-04-25 07:27 50.00245 -99.72910 34263 ft 471 kts 238°
2026-04-25 07:28 49.96647 -99.81351 34248 ft 471 kts 238°
2026-04-25 07:28 49.93040 -99.89784 34251 ft 471 kts 238°
2026-04-25 07:29 49.89457 -99.98245 34247 ft 470 kts 239°
2026-04-25 07:29 49.85973 -100.06868 34245 ft 470 kts 240°
2026-04-25 07:30 49.82506 -100.15411 34242 ft 470 kts 240°
2026-04-25 07:30 49.79032 -100.23932 34242 ft 469 kts 239°
2026-04-25 07:31 49.75557 -100.32419 34240 ft 469 kts 239°
2026-04-25 07:31 49.72056 -100.40936 34243 ft 469 kts 239°
2026-04-25 07:32 49.68578 -100.49371 34238 ft 468 kts 239°
2026-04-25 07:32 49.65068 -100.57854 34240 ft 469 kts 239°
2026-04-25 07:33 49.61557 -100.66311 34243 ft 469 kts 239°
2026-04-25 07:33 49.58037 -100.74762 34238 ft 469 kts 239°
2026-04-25 07:34 49.54521 -100.83178 34236 ft 468 kts 239°
2026-04-25 07:34 49.51007 -100.91561 34236 ft 468 kts 239°
2026-04-25 07:35 49.47477 -100.99956 34239 ft 468 kts 239°
2026-04-25 07:35 49.43947 -101.08324 34239 ft 468 kts 239°
2026-04-25 07:36 49.40416 -101.16669 34234 ft 467 kts 239°
2026-04-25 07:36 49.36870 -101.25023 34237 ft 468 kts 239°
2026-04-25 07:37 49.33338 -101.33318 34234 ft 468 kts 239°
2026-04-25 07:37 49.29787 -101.41633 34229 ft 468 kts 239°
2026-04-25 07:38 49.26226 -101.49943 34229 ft 467 kts 239°
2026-04-25 07:38 49.22675 -101.58205 34236 ft 467 kts 239°
2026-04-25 07:39 49.19101 -101.66496 34232 ft 467 kts 238°
2026-04-25 07:39 49.15516 -101.74784 34235 ft 467 kts 238°
2026-04-25 07:40 49.11954 -101.82996 34236 ft 466 kts 238°
2026-04-25 07:40 49.08369 -101.91235 34233 ft 467 kts 238°
2026-04-25 07:41 49.04792 -101.99429 34235 ft 466 kts 238°
2026-04-25 07:41 49.01253 -102.07513 34233 ft 466 kts 238°
2026-04-25 07:42 48.97144 -102.14909 34239 ft 469 kts 229°
2026-04-25 07:42 48.92630 -102.22079 34230 ft 469 kts 229°
2026-04-25 07:43 48.88114 -102.29215 34232 ft 469 kts 229°
2026-04-25 07:43 48.83582 -102.36348 34239 ft 470 kts 229°
2026-04-25 07:44 48.79069 -102.43428 34247 ft 469 kts 229°
2026-04-25 07:44 48.74517 -102.50549 34239 ft 469 kts 229°
2026-04-25 07:45 48.70009 -102.57581 34245 ft 469 kts 229°
2026-04-25 07:45 48.65460 -102.64655 34241 ft 469 kts 229°
2026-04-25 07:46 48.60891 -102.71742 34252 ft 469 kts 228°
2026-04-25 07:46 48.56365 -102.78741 34254 ft 469 kts 228°
2026-04-25 07:47 48.51819 -102.85755 34251 ft 470 kts 228°
2026-04-25 07:47 48.47240 -102.92799 34252 ft 470 kts 228°
2026-04-25 07:48 48.42688 -102.99781 34253 ft 470 kts 228°
2026-04-25 07:48 48.38109 -103.06786 34258 ft 470 kts 228°
2026-04-25 07:49 48.33535 -103.13764 34249 ft 470 kts 228°
2026-04-25 07:49 48.28965 -103.20718 34252 ft 470 kts 228°
2026-04-25 07:50 48.24408 -103.27634 34248 ft 470 kts 228°
2026-04-25 07:50 48.19804 -103.34599 34253 ft 470 kts 228°
2026-04-25 07:51 48.15557 -103.41011 34243 ft 470 kts 228°
2026-04-25 07:51 48.10968 -103.47920 34246 ft 470 kts 228°
2026-04-25 07:52 48.06386 -103.54800 34240 ft 470 kts 228°
2026-04-25 07:52 48.01785 -103.61689 34240 ft 470 kts 228°
2026-04-25 07:53 47.97172 -103.68578 34240 ft 470 kts 227°
2026-04-25 07:53 47.92544 -103.75472 34242 ft 470 kts 227°
2026-04-25 07:54 47.87912 -103.82352 34237 ft 470 kts 227°
2026-04-25 07:54 47.83300 -103.89185 34235 ft 469 kts 227°
2026-04-25 07:55 47.78688 -103.96000 34234 ft 470 kts 227°
2026-04-25 07:55 47.74050 -104.02834 34215 ft 470 kts 227°
2026-04-25 07:56 47.69447 -104.09601 34216 ft 469 kts 227°
2026-04-25 07:56 47.64811 -104.16396 34208 ft 469 kts 227°
2026-04-25 07:57 47.60177 -104.23171 34212 ft 469 kts 227°
2026-04-25 07:57 47.55529 -104.29948 34193 ft 468 kts 227°
2026-04-25 07:58 47.50915 -104.36659 34183 ft 470 kts 227°
2026-04-25 07:58 47.46265 -104.43404 34186 ft 468 kts 227°
2026-04-25 07:59 47.41633 -104.50107 34176 ft 470 kts 227°
2026-04-25 07:59 47.36985 -104.56814 34178 ft 469 kts 227°
2026-04-25 08:00 47.32336 -104.63505 34161 ft 468 kts 228°
2026-04-25 08:00 47.27648 -104.70235 34162 ft 469 kts 227°
2026-04-25 08:01 47.23009 -104.76876 34168 ft 469 kts 227°
2026-04-25 08:01 47.18327 -104.83562 34169 ft 468 kts 227°
2026-04-25 08:02 47.13663 -104.90205 34149 ft 468 kts 227°
2026-04-25 08:02 47.08990 -104.96846 34155 ft 469 kts 227°
2026-04-25 08:03 47.04288 -105.03508 34146 ft 468 kts 227°
2026-04-25 08:03 46.99620 -105.10106 34141 ft 469 kts 227°
2026-04-25 08:04 46.94928 -105.16721 34132 ft 468 kts 227°
2026-04-25 08:04 46.90252 -105.23297 34135 ft 468 kts 227°
2026-04-25 08:05 46.85543 -105.29902 34141 ft 467 kts 227°
2026-04-25 08:05 46.80878 -105.36429 34132 ft 467 kts 227°
2026-04-25 08:06 46.76169 -105.43001 34138 ft 466 kts 227°
2026-04-25 08:06 46.71502 -105.49496 34136 ft 466 kts 227°
2026-04-25 08:07 46.66801 -105.56025 34242 ft 471 kts 227°
2026-04-25 08:07 46.64438 -105.59300 34571 ft 469 kts 227°
2026-04-25 08:07 46.62076 -105.62568 34968 ft 467 kts 227°
2026-04-25 08:08 46.59737 -105.65801 35370 ft 465 kts 227°
2026-04-25 08:08 46.57407 -105.69016 35759 ft 464 kts 227°
2026-04-25 08:08 46.55050 -105.72267 36193 ft 463 kts 227°
2026-04-25 08:08 46.52734 -105.75457 36701 ft 462 kts 227°
2026-04-25 08:09 46.50390 -105.78680 37115 ft 462 kts 227°
2026-04-25 08:09 46.48062 -105.81879 37479 ft 462 kts 227°
2026-04-25 08:09 46.45751 -105.85050 37774 ft 461 kts 227°
2026-04-25 08:09 46.43416 -105.88250 38059 ft 462 kts 227°
2026-04-25 08:10 46.38745 -105.94640 38144 ft 463 kts 227°
2026-04-25 08:10 46.34261 -106.01279 38136 ft 461 kts 231°
2026-04-25 08:11 46.29875 -106.08079 38139 ft 462 kts 230°
2026-04-25 08:11 46.25506 -106.14800 38135 ft 461 kts 231°
2026-04-25 08:12 46.21102 -106.21537 38140 ft 461 kts 230°
2026-04-25 08:12 46.16705 -106.28239 38135 ft 461 kts 230°
2026-04-25 08:13 46.12291 -106.34944 38134 ft 461 kts 230°
2026-04-25 08:14 46.05650 -106.44994 38132 ft 462 kts 230°
2026-04-25 08:14 46.01223 -106.51672 38132 ft 460 kts 230°
2026-04-25 08:15 45.96821 -106.58297 38132 ft 461 kts 231°
2026-04-25 08:15 45.92389 -106.64947 38130 ft 460 kts 231°
2026-04-25 08:16 45.87926 -106.71630 38143 ft 461 kts 230°
2026-04-25 08:16 45.83508 -106.78227 38147 ft 459 kts 230°
2026-04-25 08:17 45.79065 -106.84848 38146 ft 462 kts 230°
2026-04-25 08:17 45.74640 -106.91423 38150 ft 461 kts 230°
2026-04-25 08:18 45.70182 -106.98032 38149 ft 461 kts 230°
2026-04-25 08:18 45.65747 -107.04591 38148 ft 459 kts 230°
2026-04-25 08:19 45.61295 -107.11159 38131 ft 460 kts 230°
2026-04-25 08:19 45.56839 -107.17717 38153 ft 460 kts 230°
2026-04-25 08:20 45.52396 -107.24239 38138 ft 459 kts 230°
2026-04-25 08:20 45.47962 -107.30734 38166 ft 460 kts 230°
2026-04-25 08:21 45.43498 -107.37255 38120 ft 459 kts 230°
2026-04-25 08:21 45.39032 -107.43765 38160 ft 460 kts 230°
2026-04-25 08:22 45.34577 -107.50243 38144 ft 459 kts 230°
2026-04-25 08:22 45.30088 -107.56755 38154 ft 459 kts 230°
2026-04-25 08:23 45.25647 -107.63182 38115 ft 459 kts 230°
2026-04-25 08:23 45.21151 -107.69671 38165 ft 458 kts 229°
2026-04-25 08:24 45.16676 -107.76118 38164 ft 459 kts 229°
2026-04-25 08:24 45.12195 -107.82555 38173 ft 458 kts 229°
2026-04-25 08:25 45.07744 -107.88935 38174 ft 458 kts 229°
2026-04-25 08:25 45.03258 -107.95350 38179 ft 459 kts 229°
2026-04-25 08:26 44.98462 -108.01304 38171 ft 465 kts 219°
2026-04-25 08:26 44.93063 -108.06307 38169 ft 466 kts 218°
2026-04-25 08:27 44.87616 -108.11287 38166 ft 465 kts 218°
2026-04-25 08:27 44.82168 -108.16248 38178 ft 466 kts 218°
2026-04-25 08:28 44.76744 -108.21174 38174 ft 467 kts 218°
2026-04-25 08:28 44.71296 -108.26106 38172 ft 466 kts 218°
2026-04-25 08:29 44.65842 -108.31034 38178 ft 467 kts 218°
2026-04-25 08:29 44.60376 -108.35960 38175 ft 466 kts 218°
2026-04-25 08:30 44.54925 -108.40861 38174 ft 467 kts 218°
2026-04-25 08:30 44.49461 -108.45763 38181 ft 468 kts 218°
2026-04-25 08:31 44.44041 -108.50613 38180 ft 467 kts 218°
2026-04-25 08:31 44.38556 -108.55511 38180 ft 467 kts 218°
2026-04-25 08:32 44.33089 -108.60382 38189 ft 468 kts 218°
2026-04-25 08:32 44.27587 -108.65273 38181 ft 468 kts 217°
2026-04-25 08:33 44.22078 -108.70160 38205 ft 469 kts 217°
2026-04-25 08:33 44.16594 -108.75013 38194 ft 467 kts 217°
2026-04-25 08:34 44.11132 -108.79836 38206 ft 468 kts 217°
2026-04-25 08:34 44.05607 -108.84704 38210 ft 470 kts 217°
2026-04-25 08:35 44.00106 -108.89540 38213 ft 469 kts 217°
2026-04-25 08:35 43.94582 -108.94385 38209 ft 470 kts 217°
2026-04-25 08:36 43.89057 -108.99221 38201 ft 470 kts 217°
2026-04-25 08:36 43.83523 -109.04053 38211 ft 470 kts 217°
2026-04-25 08:37 43.78016 -109.08852 38208 ft 470 kts 217°
2026-04-25 08:37 43.72473 -109.13670 38225 ft 470 kts 217°
2026-04-25 08:38 43.66957 -109.18455 38188 ft 470 kts 217°
2026-04-25 08:38 43.61406 -109.23260 38204 ft 470 kts 217°
2026-04-25 08:39 43.56216 -109.27743 38195 ft 471 kts 217°
2026-04-25 08:39 43.50642 -109.32546 38164 ft 471 kts 217°
2026-04-25 08:40 43.45110 -109.37304 38155 ft 471 kts 217°
2026-04-25 08:40 43.39565 -109.42062 38167 ft 472 kts 217°
2026-04-25 08:41 43.34002 -109.46825 38161 ft 473 kts 217°
2026-04-25 08:41 43.28445 -109.51572 38190 ft 472 kts 217°
2026-04-25 08:42 43.22858 -109.56335 38171 ft 473 kts 217°
2026-04-25 08:42 43.17259 -109.61098 38143 ft 473 kts 217°
2026-04-25 08:43 43.11687 -109.65826 38177 ft 473 kts 217°
2026-04-25 08:43 43.06065 -109.70589 38159 ft 476 kts 217°
2026-04-25 08:44 43.00475 -109.75311 38156 ft 474 kts 217°
2026-04-25 08:44 42.94866 -109.80042 38142 ft 473 kts 217°
2026-04-25 08:45 42.89265 -109.84754 38130 ft 473 kts 217°
2026-04-25 08:45 42.83654 -109.89465 38127 ft 474 kts 217°
2026-04-25 08:46 42.78033 -109.94174 38122 ft 472 kts 217°
2026-04-25 08:46 42.72462 -109.98831 38129 ft 471 kts 217°
2026-04-25 08:47 42.66876 -110.03490 38127 ft 470 kts 217°
2026-04-25 08:47 42.61318 -110.08118 38134 ft 471 kts 217°
2026-04-25 08:48 42.55944 -110.13098 38143 ft 464 kts 224°
2026-04-25 08:48 42.50988 -110.18672 38129 ft 465 kts 224°
2026-04-25 08:49 42.46003 -110.24268 38129 ft 463 kts 224°
2026-04-25 08:49 42.41061 -110.29795 38142 ft 463 kts 224°
2026-04-25 08:50 42.36092 -110.35333 38154 ft 464 kts 224°
2026-04-25 08:50 42.31101 -110.40882 38165 ft 463 kts 224°
2026-04-25 08:51 42.26176 -110.46343 38176 ft 461 kts 224°
2026-04-25 08:51 42.21156 -110.51897 38182 ft 461 kts 224°
2026-04-25 08:52 42.16222 -110.57345 38185 ft 461 kts 224°
2026-04-25 08:52 42.11247 -110.62827 38181 ft 461 kts 224°
2026-04-25 08:53 42.06251 -110.68321 38198 ft 460 kts 224°
2026-04-25 08:53 42.01320 -110.73731 38193 ft 463 kts 224°
2026-04-25 08:54 41.96349 -110.79172 38185 ft 458 kts 224°
2026-04-25 08:54 41.91396 -110.84586 38182 ft 463 kts 224°
2026-04-25 08:55 41.86389 -110.90044 38170 ft 463 kts 224°
2026-04-25 08:55 41.81414 -110.95457 38162 ft 461 kts 224°
2026-04-25 08:56 41.76417 -111.00883 38163 ft 461 kts 224°
2026-04-25 08:56 41.71428 -111.06290 38162 ft 461 kts 224°
2026-04-25 08:57 41.66442 -111.11681 38156 ft 462 kts 224°
2026-04-25 08:57 41.61457 -111.17060 38172 ft 461 kts 224°
2026-04-25 08:58 41.56460 -111.22441 38177 ft 460 kts 224°
2026-04-25 08:58 41.51482 -111.27792 38170 ft 461 kts 224°
2026-04-25 08:59 41.46511 -111.33122 38195 ft 461 kts 224°
2026-04-25 08:59 41.41517 -111.38468 38188 ft 461 kts 224°
2026-04-25 09:00 41.36493 -111.43835 38207 ft 461 kts 224°
2026-04-25 09:00 41.31502 -111.49155 38201 ft 461 kts 224°
2026-04-25 09:01 41.26501 -111.54475 38195 ft 461 kts 224°
2026-04-25 09:01 41.21507 -111.59778 38171 ft 462 kts 224°
2026-04-25 09:02 41.16529 -111.65052 38144 ft 458 kts 223°
2026-04-25 09:02 41.11508 -111.70362 38137 ft 460 kts 223°
2026-04-25 09:03 41.06514 -111.75633 38133 ft 460 kts 224°
2026-04-25 09:03 41.01500 -111.80913 38122 ft 459 kts 224°
2026-04-25 09:04 40.96486 -111.86184 38110 ft 459 kts 223°
2026-04-25 09:04 40.91466 -111.91451 38097 ft 462 kts 224°
2026-04-25 09:05 40.86429 -111.96715 38075 ft 460 kts 222°
2026-04-25 09:05 40.80851 -112.01052 38061 ft 470 kts 213°
2026-04-25 09:06 40.75055 -112.05058 38057 ft 468 kts 213°
2026-04-25 09:06 40.69265 -112.09046 38069 ft 470 kts 213°
2026-04-25 09:07 40.63485 -112.13016 38093 ft 468 kts 213°
2026-04-25 09:07 40.57692 -112.16986 38128 ft 468 kts 213°
2026-04-25 09:08 40.51911 -112.20939 38179 ft 466 kts 213°
2026-04-25 09:08 40.46145 -112.24876 38204 ft 469 kts 213°
2026-04-25 09:09 40.40377 -112.28804 38185 ft 469 kts 213°
2026-04-25 09:09 40.34562 -112.32758 38155 ft 469 kts 213°
2026-04-25 09:10 40.28777 -112.36684 38141 ft 469 kts 213°
2026-04-25 09:10 40.22951 -112.40629 38139 ft 471 kts 213°
2026-04-25 09:11 40.14260 -112.46500 38170 ft 470 kts 213°
2026-04-25 09:11 40.08436 -112.50425 38185 ft 470 kts 213°
2026-04-25 09:12 40.02618 -112.54337 38194 ft 469 kts 213°
2026-04-25 09:12 39.96838 -112.58154 38188 ft 470 kts 209°
2026-04-25 09:13 39.90620 -112.61155 38177 ft 478 kts 206°
2026-04-25 09:13 39.84346 -112.64058 38136 ft 474 kts 206°
2026-04-25 09:14 39.78115 -112.66939 38124 ft 476 kts 205°
2026-04-25 09:14 39.71857 -112.69828 38097 ft 476 kts 205°
2026-04-25 09:15 39.65602 -112.72712 38120 ft 480 kts 205°
2026-04-25 09:15 39.59338 -112.75593 38111 ft 478 kts 205°
2026-04-25 09:16 39.53072 -112.78469 38142 ft 478 kts 205°
2026-04-25 09:16 39.46797 -112.81345 38140 ft 479 kts 205°
2026-04-25 09:17 39.37418 -112.85635 38144 ft 480 kts 204°
2026-04-25 09:18 39.31145 -112.88496 38156 ft 478 kts 204°
2026-04-25 09:18 39.24856 -112.91360 38164 ft 481 kts 204°
2026-04-25 09:19 39.18559 -112.94221 38170 ft 479 kts 204°
2026-04-25 09:19 39.12314 -112.97053 38181 ft 478 kts 205°
2026-04-25 09:20 39.05992 -112.99915 38177 ft 480 kts 204°
2026-04-25 09:20 38.99702 -113.02757 38201 ft 480 kts 204°
2026-04-25 09:21 38.93385 -113.05607 38208 ft 481 kts 204°
2026-04-25 09:21 38.87077 -113.08446 38249 ft 482 kts 204°
2026-04-25 09:22 38.80746 -113.11291 38251 ft 480 kts 204°
2026-04-25 09:22 38.74455 -113.14112 38240 ft 481 kts 204°
2026-04-25 09:23 38.68098 -113.16958 38262 ft 483 kts 204°
2026-04-25 09:23 38.61800 -113.19769 38345 ft 482 kts 204°
2026-04-25 09:24 38.55482 -113.22585 38378 ft 482 kts 204°
2026-04-25 09:24 38.49139 -113.25406 38412 ft 482 kts 204°
2026-04-25 09:25 38.42816 -113.28213 38484 ft 484 kts 204°
2026-04-25 09:25 38.36483 -113.31018 38492 ft 481 kts 204°
2026-04-25 09:26 38.30182 -113.33805 38461 ft 482 kts 204°
2026-04-25 09:26 38.23831 -113.36609 38475 ft 482 kts 204°
2026-04-25 09:27 38.17527 -113.39386 38490 ft 482 kts 204°
2026-04-25 09:27 38.11183 -113.42177 38497 ft 483 kts 204°
2026-04-25 09:28 38.04824 -113.44968 38535 ft 483 kts 204°
2026-04-25 09:28 37.98458 -113.47759 38552 ft 484 kts 204°
2026-04-25 09:29 37.92009 -113.50302 38542 ft 488 kts 197°
2026-04-25 09:29 37.85291 -113.51958 38551 ft 489 kts 196°
2026-04-25 09:30 37.78596 -113.53569 38549 ft 491 kts 196°
2026-04-25 09:30 37.71921 -113.55174 38551 ft 492 kts 196°
2026-04-25 09:31 37.65161 -113.56799 38576 ft 492 kts 196°
2026-04-25 09:31 37.58468 -113.58405 38609 ft 491 kts 195°
2026-04-25 09:32 37.51711 -113.60023 38627 ft 491 kts 195°
2026-04-25 09:32 37.44964 -113.61637 38620 ft 493 kts 195°
2026-04-25 09:33 37.38270 -113.63235 38601 ft 493 kts 195°
2026-04-25 09:33 37.31511 -113.64846 38581 ft 493 kts 195°
2026-04-25 09:34 37.24728 -113.66460 38567 ft 493 kts 195°
2026-04-25 09:34 37.17989 -113.68059 38546 ft 493 kts 194°
2026-04-25 09:35 37.11250 -113.69657 38535 ft 493 kts 194°
2026-04-25 09:35 37.04519 -113.71427 38515 ft 489 kts 201°
2026-04-25 09:36 36.98642 -113.74161 38515 ft 487 kts 205°
2026-04-25 09:36 36.92323 -113.77232 38525 ft 486 kts 205°
2026-04-25 09:37 36.85971 -113.80310 38512 ft 487 kts 205°
2026-04-25 09:37 36.79621 -113.83381 38493 ft 489 kts 205°
2026-04-25 09:38 36.73303 -113.86430 38476 ft 489 kts 205°
2026-04-25 09:38 36.66950 -113.89489 38468 ft 490 kts 205°
2026-04-25 09:39 36.60680 -113.92768 38444 ft 487 kts 208°
2026-04-25 09:39 36.54467 -113.96242 38443 ft 487 kts 207°
2026-04-25 09:40 36.45146 -114.01410 38417 ft 491 kts 207°
2026-04-25 09:40 36.39103 -114.05173 38373 ft 484 kts 215°
2026-04-25 09:41 36.33326 -114.09611 38342 ft 487 kts 215°
2026-04-25 09:41 36.27589 -114.14022 38344 ft 487 kts 215°
2026-04-25 09:42 36.21876 -114.18403 38364 ft 486 kts 215°
2026-04-25 09:42 36.16116 -114.22810 38371 ft 487 kts 215°
2026-04-25 09:43 36.10340 -114.27271 38331 ft 486 kts 218°
2026-04-25 09:43 36.05448 -114.32890 38298 ft 482 kts 231°
2026-04-25 09:44 36.00985 -114.39071 38267 ft 481 kts 231°
2026-04-25 09:44 35.96516 -114.45258 38271 ft 482 kts 231°
2026-04-25 09:45 35.92068 -114.51405 38300 ft 482 kts 231°
2026-04-25 09:45 35.87592 -114.57577 38292 ft 481 kts 231°
2026-04-25 09:46 35.83104 -114.63755 38279 ft 482 kts 231°
2026-04-25 09:46 35.78625 -114.69908 38275 ft 482 kts 230°
2026-04-25 09:47 35.74146 -114.76051 38257 ft 481 kts 230°
2026-04-25 09:47 35.69679 -114.82165 38271 ft 483 kts 230°
2026-04-25 09:48 35.65199 -114.88288 38306 ft 483 kts 231°
2026-04-25 09:48 35.60731 -114.94402 38366 ft 482 kts 231°
2026-04-25 09:49 35.56247 -115.00528 38427 ft 482 kts 231°
2026-04-25 09:49 35.51759 -115.06648 38460 ft 483 kts 231°
2026-04-25 09:50 35.47216 -115.12689 38477 ft 483 kts 230°
2026-04-25 09:50 35.42617 -115.18678 38492 ft 484 kts 230°
2026-04-25 09:51 35.37998 -115.24692 38510 ft 483 kts 230°
2026-04-25 09:51 35.33408 -115.30662 38543 ft 483 kts 230°
2026-04-25 09:52 35.28808 -115.36637 38551 ft 483 kts 230°
2026-04-25 09:52 35.24218 -115.42590 38553 ft 484 kts 230°
2026-04-25 09:53 35.19587 -115.48587 38532 ft 484 kts 230°
2026-04-25 09:53 35.14964 -115.54563 38513 ft 484 kts 230°
2026-04-25 09:54 35.10332 -115.60528 38469 ft 484 kts 230°
2026-04-25 09:54 35.05668 -115.66492 38420 ft 484 kts 229°
2026-04-25 09:55 35.01031 -115.72410 38341 ft 478 kts 229°
2026-04-25 09:55 34.98766 -115.75297 38304 ft 465 kts 229°
2026-04-25 09:55 34.96551 -115.78117 38291 ft 458 kts 229°
2026-04-25 09:56 34.92138 -115.83735 38335 ft 461 kts 229°
2026-04-25 09:56 34.87676 -115.89406 38331 ft 460 kts 229°
2026-04-25 09:57 34.83232 -115.95042 38321 ft 460 kts 229°
2026-04-25 09:57 34.78811 -116.00643 38318 ft 461 kts 229°
2026-04-25 09:58 34.74355 -116.06302 38312 ft 461 kts 229°
2026-04-25 09:58 34.69941 -116.11928 38135 ft 454 kts 229°
2026-04-25 09:59 34.67769 -116.14691 37200 ft 457 kts 229°
2026-04-25 09:59 34.65575 -116.17484 36109 ft 462 kts 229°
2026-04-25 09:59 34.63364 -116.20293 35149 ft 464 kts 229°
2026-04-25 09:59 34.61126 -116.23135 34183 ft 466 kts 228°
2026-04-25 10:00 34.58872 -116.25992 33178 ft 468 kts 228°
2026-04-25 10:00 34.56624 -116.28841 32145 ft 471 kts 228°
2026-04-25 10:00 34.54365 -116.31700 31096 ft 474 kts 228°
2026-04-25 10:00 34.52082 -116.34587 30447 ft 468 kts 228°
2026-04-25 10:01 34.49873 -116.37377 29896 ft 461 kts 228°
2026-04-25 10:01 34.47648 -116.40185 29260 ft 456 kts 228°
2026-04-25 10:01 34.45457 -116.42949 28593 ft 452 kts 228°
2026-04-25 10:01 34.43320 -116.45661 27914 ft 449 kts 230°
2026-04-25 10:02 34.41432 -116.48666 27248 ft 442 kts 239°
2026-04-25 10:02 34.39977 -116.51878 26575 ft 438 kts 244°
2026-04-25 10:02 34.38619 -116.55157 25875 ft 435 kts 245°
2026-04-25 10:02 34.37277 -116.58416 25200 ft 431 kts 245°
2026-04-25 10:03 34.35950 -116.61633 24661 ft 424 kts 245°
2026-04-25 10:03 34.34661 -116.64758 24591 ft 406 kts 245°
2026-04-25 10:03 34.33422 -116.67756 24628 ft 388 kts 244°
2026-04-25 10:03 34.32247 -116.70655 24374 ft 389 kts 245°
2026-04-25 10:04 34.31059 -116.73622 23719 ft 390 kts 245°
2026-04-25 10:04 34.29882 -116.76555 23195 ft 385 kts 245°
2026-04-25 10:04 34.28734 -116.79411 22765 ft 378 kts 245°
2026-04-25 10:04 34.27585 -116.82266 22331 ft 372 kts 245°
2026-04-25 10:05 34.26457 -116.85067 21906 ft 371 kts 245°
2026-04-25 10:05 34.25325 -116.87876 21470 ft 371 kts 245°
2026-04-25 10:05 34.24193 -116.90678 21039 ft 368 kts 245°
2026-04-25 10:05 34.23069 -116.93459 20596 ft 367 kts 245°
2026-04-25 10:06 34.21957 -116.96210 20144 ft 366 kts 245°
2026-04-25 10:06 34.20935 -116.99003 19682 ft 363 kts 251°
2026-04-25 10:06 34.20139 -117.01877 19336 ft 359 kts 253°
2026-04-25 10:06 34.19355 -117.04786 18991 ft 362 kts 253°
2026-04-25 10:07 34.18583 -117.07652 18618 ft 360 kts 253°
2026-04-25 10:07 34.17799 -117.10555 18241 ft 358 kts 253°
2026-04-25 10:07 34.17028 -117.13402 17905 ft 357 kts 253°
2026-04-25 10:07 34.16253 -117.16255 17538 ft 356 kts 253°
2026-04-25 10:08 34.15470 -117.19109 17113 ft 356 kts 253°
2026-04-25 10:08 34.14689 -117.21948 16678 ft 354 kts 252°
2026-04-25 10:08 34.13912 -117.24767 16250 ft 353 kts 252°
2026-04-25 10:08 34.13147 -117.27544 15838 ft 351 kts 252°
2026-04-25 10:09 34.12371 -117.30359 15428 ft 351 kts 252°
2026-04-25 10:09 34.11609 -117.33120 15016 ft 349 kts 252°
2026-04-25 10:09 34.10836 -117.35918 14621 ft 347 kts 252°
2026-04-25 10:09 34.10086 -117.38690 14202 ft 346 kts 253°
2026-04-25 10:10 34.09406 -117.41431 13735 ft 343 kts 254°
2026-04-25 10:10 34.08724 -117.44198 13275 ft 340 kts 254°
2026-04-25 10:10 34.08044 -117.46941 12825 ft 338 kts 253°
2026-04-25 10:10 34.07352 -117.49645 12378 ft 335 kts 251°
2026-04-25 10:11 34.06486 -117.52288 12023 ft 330 kts 248°
2026-04-25 10:11 34.05603 -117.54815 11764 ft 328 kts 247°
2026-04-25 10:11 34.04704 -117.57377 11487 ft 324 kts 247°
2026-04-25 10:11 34.03827 -117.59887 11204 ft 318 kts 247°
2026-04-25 10:12 34.02965 -117.62354 10931 ft 312 kts 248°
2026-04-25 10:12 34.02139 -117.64732 10657 ft 306 kts 249°
2026-04-25 10:12 34.01416 -117.69717 10058 ft 299 kts 263°
2026-04-25 10:13 34.01178 -117.72181 9720 ft 298 kts 263°
2026-04-25 10:13 34.00923 -117.74667 9370 ft 297 kts 263°
2026-04-25 10:13 34.00681 -117.77132 9015 ft 297 kts 263°
2026-04-25 10:13 34.00437 -117.79618 8652 ft 297 kts 263°
2026-04-25 10:14 34.00197 -117.82082 8282 ft 297 kts 263°
2026-04-25 10:14 33.99960 -117.84550 7941 ft 296 kts 263°
2026-04-25 10:14 33.99774 -117.86472 7701 ft 295 kts 263°
2026-04-25 10:14 33.99530 -117.88927 7387 ft 293 kts 263°
2026-04-25 10:15 33.99281 -117.91361 7084 ft 292 kts 263°
2026-04-25 10:15 33.99023 -117.93800 6796 ft 289 kts 262°
2026-04-25 10:15 33.98758 -117.96165 6433 ft 281 kts 261°
2026-04-25 10:15 33.98460 -117.98473 6112 ft 273 kts 260°
2026-04-25 10:16 33.98140 -118.00684 5825 ft 269 kts 259°
2026-04-25 10:16 33.97817 -118.02901 5504 ft 265 kts 260°
2026-04-25 10:16 33.97505 -118.05057 5194 ft 257 kts 260°
2026-04-25 10:16 33.97210 -118.07127 4885 ft 248 kts 260°
2026-04-25 10:17 33.96933 -118.09191 4579 ft 248 kts 261°
2026-04-25 10:17 33.96685 -118.11237 4270 ft 248 kts 262°
2026-04-25 10:17 33.96460 -118.13268 3963 ft 247 kts 263°
2026-04-25 10:17 33.96247 -118.15340 3649 ft 246 kts 263°
2026-04-25 10:18 33.96050 -118.17380 3337 ft 246 kts 263°
2026-04-25 10:18 33.95859 -118.19382 3029 ft 231 kts 263°
2026-04-25 10:18 33.95689 -118.21201 2757 ft 211 kts 263°
2026-04-25 10:18 33.95528 -118.22884 2502 ft 199 kts 263°
2026-04-25 10:19 33.95367 -118.24501 2251 ft 188 kts 263°
2026-04-25 10:19 33.95213 -118.26029 2016 ft 178 kts 263°
2026-04-25 10:19 33.95067 -118.27464 1801 ft 176 kts 263°
2026-04-25 10:19 33.94917 -118.28928 1568 ft 175 kts 263°
2026-04-25 10:20 33.94772 -118.30354 1345 ft 164 kts 263°
2026-04-25 10:20 33.94637 -118.31679 1139 ft 154 kts 263°
2026-04-25 10:20 33.94506 -118.32949 1008 ft 151 kts 263°
2026-04-25 10:20 33.94378 -118.34206 813 ft 151 kts 263°
2026-04-25 10:21 33.94259 -118.35326 596 ft 149 kts 262°
2026-04-25 10:21 33.94134 -118.36553 396 ft 148 kts 263°
2026-04-25 10:21 33.94006 -118.37796 196 ft 148 kts 263°
2026-04-25 10:21 33.93884 -118.38987 108 ft 135 kts 263°
2026-04-25 10:22 33.93788 -118.39928 115 ft 86 kts 263°
2026-04-25 10:22 33.93761 -118.40187 118 ft 27 kts 263°
2026-04-25 10:22 33.93744 -118.40357 121 ft 4 kts 264°
2026-04-25 10:22 33.93741 -118.40416 122 ft 10 kts 271°
2026-04-25 10:23 33.93753 -118.40498 124 ft 8 kts 288°
2026-04-25 10:23 33.93774 -118.40554 125 ft 6 kts 298°
2026-04-25 10:23 33.93793 -118.40594 126 ft 5 kts 298°
2026-04-25 10:23 33.93805 -118.40642 127 ft 3 kts 278°
2026-04-25 10:24 33.93807 -118.40668 128 ft 5 kts 276°
2026-04-25 10:24 33.93827 -118.40718 128 ft 5 kts 317°
2026-04-25 10:24 33.93861 -118.40720 128 ft 6 kts 31°
2026-04-25 10:24 33.93891 -118.40657 127 ft 9 kts 75°
2026-04-25 10:25 33.93902 -118.40572 126 ft 10 kts 82°
2026-04-25 10:25 33.93920 -118.40512 125 ft 8 kts 46°
2026-04-25 10:25 33.93943 -118.40492 124 ft 2 kts 33°
2026-04-25 10:25 33.93958 -118.40479 124 ft 1 kts 32°
2026-04-25 10:26 33.93964 -118.40475 124 ft 0 kts 32°